GFSFLT1_250_spd_000.txt.gz
Wind_Speed
37 36 37 39 40 39 41 41 42 43 43 45 46 48 49 47 44 38 30 32 36 38 41 44 44 45 48 48 51 53 56 59 62
36 35 38 40 40 43 43 43 44 44 44 43 46 46 44 41 34 30 33 36 38 41 43 43 44 47 49 51 55 57 59 61 65
36 37 39 41 42 43 44 45 45 45 44 43 42 40 37 29 30 33 35 38 40 41 41 42 44 47 51 53 56 58 61 64 66
40 39 39 39 40 41 42 42 42 42 40 40 39 36 30 30 32 34 37 39 41 40 41 43 47 50 54 55 58 61 64 64 64
35 36 37 40 42 45 43 42 41 39 37 38 36 31 31 34 35 37 40 41 40 41 43 46 49 50 54 56 58 60 64 60 61
44 43 44 48 47 45 43 40 39 39 38 37 33 32 35 36 38 40 40 42 43 44 46 49 52 53 57 57 57 59 60 61 61
42 44 46 47 46 45 43 43 43 42 37 37 32 33 37 42 42 42 42 43 45 47 50 52 55 57 59 57 56 58 57 59 59
40 44 47 46 49 46 45 44 46 41 39 36 34 37 41 43 45 45 46 48 50 52 54 58 59 60 60 59 60 61 61 63 63
43 45 47 49 47 47 46 48 43 41 36 35 37 40 44 47 49 50 51 52 54 56 60 64 65 64 63 61 63 65 66 67 67
43 44 45 47 49 49 47 41 38 36 37 38 41 44 48 50 53 56 55 56 57 60 63 67 66 68 67 66 67 69 70 70 71
41 44 47 48 49 48 45 43 39 40 41 43 45 49 52 55 58 59 59 61 64 66 68 70 70 70 70 71 72 74 75 76 75
44 49 48 48 50 48 46 43 43 44 46 49 51 54 57 59 60 61 63 65 67 70 73 73 73 73 75 78 78 79 80 80 80
47 50 51 51 51 51 48 46 47 50 52 53 56 58 60 63 66 69 70 72 74 76 76 76 76 77 77 78 82 85 85 84 85
50 53 54 54 53 54 52 52 52 55 58 58 60 62 66 69 71 74 76 78 80 81 82 81 81 81 82 85 85 86 87 87 87
52 55 57 57 56 57 56 57 59 61 64 64 67 69 73 76 78 78 78 80 83 84 85 88 87 87 88 91 92 93 93 92 90
54 55 60 58 58 60 61 62 65 69 71 70 73 75 80 83 85 87 88 89 91 91 93 93 93 92 96 96 97 98 98 95 92
57 60 61 58 60 64 67 69 70 73 78 79 80 80 84 89 91 94 96 97 99 100 102 101 101 103 103 103 104 104 104 101 98
61 60 59 61 64 68 72 74 76 78 83 87 89 89 88 90 92 95 98 101 102 104 106 108 109 110 110 110 110 109 109 107 103
57 59 62 66 70 73 75 79 82 85 87 92 96 97 97 97 93 94 97 101 105 109 111 112 112 112 112 112 112 113 115 116 113
64 66 69 72 75 79 83 87 91 93 95 97 100 103 106 108 109 103 104 107 108 110 115 120 120 121 121 120 119 121 121 122 121

GFSFLT1_250_spd_003.txt.gz
Wind_Speed
37 33 36 34 36 38 39 37 39 40 41 42 41 42 41 43 43 42 41 41 30 29 32 34 36 38 38 35 36 39 39 41 42
25 34 33 36 36 35 37 38 38 38 39 41 40 39 40 42 41 40 36 29 29 32 33 36 38 39 38 37 40 41 43 42 43
33 38 32 32 36 38 38 37 39 39 36 35 37 36 36 39 38 32 29 29 31 34 35 38 39 40 37 40 43 45 47 44 45
37 38 40 39 39 38 37 39 42 40 37 34 35 36 36 38 36 31 30 32 34 36 38 40 41 39 40 42 45 46 48 47 46
32 40 41 36 37 43 44 44 46 40 38 36 37 38 37 37 36 34 34 36 37 39 40 41 42 42 43 46 48 50 52 51 50
34 36 41 45 46 49 48 48 46 44 42 40 40 41 39 37 36 36 37 39 41 42 42 43 44 45 47 49 51 56 56 54 54
39 42 42 44 46 44 47 50 48 47 44 43 45 42 41 40 38 39 39 42 44 45 46 46 47 49 51 52 55 58 58 58 57
36 38 39 41 42 45 49 49 48 47 46 47 44 42 42 40 40 40 42 45 48 50 51 51 50 51 54 56 57 60 61 60 59
41 41 42 45 45 47 47 48 49 49 49 44 42 40 38 39 42 45 47 50 53 54 56 56 55 56 59 59 61 64 64 64 63
48 49 49 49 48 50 49 48 50 51 47 45 41 39 41 43 46 50 53 55 58 60 59 59 61 62 64 66 67 67 68 67 67
48 48 50 50 51 50 50 50 51 53 48 46 43 44 45 48 50 53 56 58 59 61 64 66 67 70 72 73 74 75 74 72 72
44 48 50 52 51 53 54 53 52 53 51 50 48 49 51 54 55 57 60 62 64 66 68 71 74 76 77 77 78 79 77 78 77
49 52 52 54 53 54 55 55 54 55 54 54 55 56 58 61 63 65 66 68 71 73 75 76 79 80 81 81 82 82 83 84 83
47 50 52 53 55 56 55 57 57 58 56 55 60 62 65 68 70 72 74 75 77 79 82 85 85 85 86 87 87 87 88 87 87
47 50 52 56 58 59 59 59 60 58 57 59 62 65 70 74 77 79 80 83 85 87 88 90 91 91 91 91 91 91 92 92 94
47 51 55 58 59 60 61 62 61 62 62 63 66 70 74 78 80 84 88 90 92 93 94 95 97 98 100 99 100 99 99 100 102
51 54 57 59 61 61 60 61 63 67 71 72 74 75 78 83 86 89 91 94 97 100 102 103 104 105 106 108 109 109 109 109 109
54 54 53 56 58 61 64 67 69 70 76 80 81 81 83 84 89 93 97 100 104 107 110 111 114 116 116 116 115 116 117 117 117
53 56 59 62 64 66 69 72 75 77 80 85 91 94 94 93 89 97 101 105 108 110 113 115 118 123 125 127 125 124 123 124 125
58 61 64 67 69 71 75 78 81 85 88 91 94 98 104 109 110 102 108 111 116 118 120 121 122 125 128 131 131 130 129 128 127

GFSFLT1_250_spd_006.txt.gz
Wind_Speed
40 38 39 36 35 35 37 38 39 40 37 41 40 40 44 47 43 42 41 43 42 42 41 34 33 33 35 37 39 38 34 35 35
38 37 39 35 36 37 39 41 41 37 40 39 39 40 41 41 40 39 39 40 41 37 34 33 33 35 38 40 41 38 36 35 36
37 38 32 29 38 38 35 36 39 40 41 41 42 42 40 38 39 40 41 41 39 36 35 35 36 37 39 41 42 40 38 38 40
38 37 40 38 41 42 43 43 45 42 44 45 45 42 40 38 39 41 42 41 41 39 37 37 38 40 42 43 43 42 42 42 44
37 38 40 46 44 46 45 44 43 46 50 46 47 44 43 41 41 43 45 43 43 42 40 40 41 43 43 44 46 46 44 46 48
38 40 40 39 40 42 44 44 47 49 47 48 47 46 43 44 45 45 43 44 44 44 43 44 46 47 48 49 49 49 48 49 50
40 41 38 39 40 45 48 48 42 45 49 50 48 45 47 48 48 45 43 45 46 46 47 48 50 51 53 53 54 54 54 54 55
42 42 40 41 44 45 44 42 47 51 51 52 50 50 49 48 46 45 42 41 43 47 49 51 53 55 57 59 59 57 57 59 61
48 46 46 45 44 44 47 50 52 53 55 53 52 50 50 47 46 45 43 43 44 48 52 55 57 59 61 60 60 60 62 64 66
45 48 49 51 49 53 53 54 56 55 55 54 54 53 52 49 47 48 49 50 50 52 55 57 60 61 61 63 64 64 65 67 70
47 51 52 54 57 58 58 57 57 57 56 58 56 55 55 54 51 50 53 56 57 58 60 61 62 64 65 67 68 70 71 73 75
43 46 47 47 52 54 56 57 59 59 58 59 60 59 57 58 56 55 58 61 64 67 67 68 70 72 74 75 76 77 79 81 83
43 45 50 52 53 55 58 60 61 60 58 60 61 62 62 62 60 60 61 64 69 71 75 76 77 79 81 82 84 86 88 90 90
46 48 51 53 56 57 56 57 58 59 62 63 63 64 65 64 63 64 67 69 72 75 77 80 83 85 86 89 91 94 95 95 94
46 48 49 48 50 53 55 59 62 64 64 64 65 64 63 63 65 69 73 76 79 81 83 87 89 93 96 96 97 97 99 100 101
44 46 47 49 52 56 60 63 63 62 60 59 61 64 66 70 71 76 78 82 85 88 90 94 96 98 100 103 105 105 106 106 108
44 47 50 54 57 59 61 60 60 63 65 64 64 65 70 75 78 81 85 88 92 96 99 101 104 106 107 108 110 114 116 116 116
49 52 54 56 59 61 60 62 64 65 69 73 73 73 75 76 83 89 92 96 99 103 106 110 114 117 119 120 122 124 126 126 124
51 55 57 59 60 61 65 68 70 72 74 78 82 85 84 83 80 89 95 100 105 109 113 116 120 124 127 127 126 126 128 128 127
52 55 58 60 63 67 70 73 76 79 81 83 86 90 94 99 100 95 103 107 112 113 114 117 121 124 127 129 130 131 132 133 135

GFSFLT1_250_spd_009.txt.gz
Wind_Speed
50 50 45 44 42 37 38 40 39 38 38 40 42 40 39 40 43 44 45 46 43 43 44 43 42 43 42 40 38 35 37 39 39
50 46 42 41 39 38 43 37 38 41 42 43 39 39 39 41 44 46 44 44 42 42 43 42 41 40 39 37 36 37 39 41 41
48 40 37 39 39 40 43 38 41 41 38 39 43 42 41 45 45 44 44 43 42 42 43 43 42 41 38 37 38 40 41 43 43
43 36 35 38 40 39 33 34 43 42 47 47 45 43 46 49 47 45 46 44 45 43 43 45 44 43 40 40 41 41 43 44 44
39 34 35 37 39 40 44 42 47 52 49 50 44 46 50 52 48 45 45 46 47 47 46 44 46 47 45 44 45 46 47 47 48
36 35 35 37 39 43 39 46 45 43 47 48 51 52 49 52 50 47 47 48 48 49 47 46 46 50 50 49 50 51 52 53 53
34 35 36 37 41 42 40 44 44 47 49 55 49 48 53 54 51 50 48 47 46 46 46 46 48 51 53 54 55 55 55 55 56
33 34 36 38 42 39 40 41 46 48 49 47 49 51 57 56 54 51 52 50 47 45 46 46 47 50 53 56 57 58 59 59 61
33 35 39 42 45 43 42 44 46 47 47 51 53 59 59 58 57 56 55 53 50 48 48 50 50 50 52 56 59 61 62 63 62
33 35 40 43 46 50 51 52 53 54 58 58 63 62 63 61 60 59 59 57 55 52 51 53 55 56 58 60 62 63 65 65 66
34 35 39 45 51 54 57 59 60 61 62 63 66 67 65 64 63 61 61 61 60 59 57 58 59 61 63 65 66 68 70 73 74
35 36 38 43 51 54 57 61 64 67 69 66 63 65 67 65 62 64 66 66 65 66 63 61 62 65 67 70 72 73 75 77 79
36 38 41 45 52 54 56 56 59 59 61 63 65 65 64 65 67 70 69 67 66 64 64 65 66 68 71 73 76 79 81 83 85
37 39 42 45 48 50 53 55 58 61 62 61 62 64 66 68 71 69 66 65 64 65 67 68 72 75 78 79 81 83 86 88 89
37 39 41 44 49 51 52 54 55 55 57 60 63 67 69 67 64 65 67 68 70 71 74 76 79 82 86 88 89 90 92 95 97
38 39 42 45 47 49 49 53 56 61 63 64 65 67 65 69 69 70 72 75 77 79 82 84 86 89 92 94 97 100 101 102 103
41 42 44 46 48 52 55 59 62 65 67 66 66 66 71 74 75 77 79 82 84 86 89 93 96 98 99 104 107 110 112 113 112
47 48 50 53 56 59 60 62 64 65 69 70 70 71 73 74 80 84 87 89 92 95 98 101 106 109 112 115 117 120 121 121 121
47 51 53 56 58 60 62 63 65 67 70 74 78 81 82 82 80 86 91 94 98 100 103 107 112 115 118 119 122 125 126 125 125
49 51 55 58 61 63 65 67 71 74 77 80 83 85 89 93 93 89 96 99 104 106 108 111 115 118 121 124 126 128 128 131 131

GFSFLT1_250_spd_012.txt.gz
Wind_Speed
58 57 56 55 53 53 52 50 47 41 39 42 44 44 41 42 43 43 41 42 48 48 47 45 43 42 43 44 44 43 42 42 36
58 55 55 54 52 51 50 48 43 39 41 41 38 42 42 47 41 41 42 46 46 48 45 44 43 43 42 42 41 41 40 35 37
55 53 51 51 50 49 47 45 41 40 41 34 36 43 43 39 43 44 44 46 48 49 46 44 42 43 42 42 40 39 37 39 41
51 46 47 49 48 46 44 40 39 39 38 40 45 47 49 49 49 48 46 48 48 49 45 44 46 46 45 43 41 41 43 45 46
44 41 45 46 43 40 40 37 36 37 39 41 45 50 53 52 50 47 49 49 52 50 46 46 48 48 47 47 45 48 49 49 49
39 41 43 42 38 37 39 39 41 42 40 42 49 48 47 49 51 52 56 53 53 52 47 48 48 47 48 47 48 49 54 55 54
39 40 41 40 38 38 39 40 43 44 44 43 47 49 52 52 56 51 49 51 54 53 51 50 50 48 48 49 50 52 54 58 59
39 39 39 38 37 38 40 41 45 49 48 44 48 51 54 54 48 52 53 57 61 56 55 54 52 51 50 50 50 52 55 58 62
41 40 38 37 37 38 40 42 45 44 44 44 48 53 50 54 54 57 61 67 65 61 60 58 56 55 54 53 54 56 58 59 61
42 42 40 37 37 38 41 44 47 48 50 50 53 56 57 61 63 67 67 70 70 65 63 60 60 61 61 58 57 60 62 63 65
42 43 42 38 38 39 41 45 47 54 55 59 59 64 69 69 71 72 72 70 68 69 64 62 64 66 64 63 63 62 66 68 69
41 43 42 41 39 40 42 46 51 54 57 63 66 72 72 74 75 71 68 68 71 67 68 70 71 68 65 64 63 63 65 68 71
39 40 42 43 42 42 42 44 51 56 60 65 67 69 67 69 70 70 72 69 68 69 72 72 68 68 69 69 69 69 71 73 75
38 38 39 42 43 43 44 46 50 54 57 60 61 63 64 66 66 67 67 70 71 73 72 71 73 74 75 75 77 78 79 81 82
39 40 41 43 43 44 45 48 50 52 53 56 59 61 64 64 66 68 72 74 75 74 75 77 79 80 81 83 86 87 87 88 90
40 44 45 45 45 47 48 49 50 53 54 56 59 63 67 69 72 73 75 76 77 78 81 83 85 87 90 91 92 94 96 96 97
42 44 44 45 48 49 52 54 57 59 61 62 65 68 73 74 76 76 78 79 81 84 87 90 92 94 96 98 100 102 104 104 106
44 45 46 47 49 50 51 55 56 61 65 67 67 68 70 72 77 80 84 86 88 91 94 97 100 101 103 105 107 110 111 112 112
48 48 50 50 50 52 56 59 62 64 67 71 75 76 76 78 75 81 87 90 93 98 101 104 105 107 109 112 115 115 117 121 122
49 52 54 55 56 58 60 63 65 67 70 72 76 80 84 87 87 84 90 93 95 96 100 104 107 111 115 118 121 124 127 126 126

GFSFLT1_250_spd_015.txt.gz
Wind_Speed
59 60 61 62 64 64 62 58 56 56 56 58 57 49 44 44 46 49 50 44 45 46 41 44 46 47 48 46 44 43 44 43 42
62 66 67 65 65 62 57 53 52 53 54 55 49 42 44 47 46 49 45 47 50 42 44 45 44 46 46 45 45 45 43 42 41
68 67 63 65 58 54 50 49 50 51 51 49 43 41 44 46 47 46 49 50 45 47 48 44 46 47 46 44 44 46 47 45 43
67 66 64 57 49 47 47 48 49 49 48 47 45 44 46 49 48 48 52 55 53 51 47 47 49 49 50 44 43 45 47 48 46
67 59 53 48 45 46 47 48 48 47 45 43 43 44 46 50 50 51 51 56 59 57 55 51 54 52 50 46 46 45 46 48 49
57 52 44 42 46 46 46 46 47 44 44 44 46 47 47 48 49 51 58 57 56 57 56 58 52 50 53 51 49 48 46 47 50
52 42 40 43 45 46 46 44 44 43 44 45 47 46 48 48 49 51 59 57 59 58 58 55 55 59 60 56 53 51 50 49 50
42 38 41 43 45 45 46 44 42 42 43 45 48 50 51 52 52 53 58 59 61 61 55 58 60 64 67 63 58 58 54 53 53
38 41 43 43 44 44 45 44 42 43 44 47 49 55 58 56 54 55 58 59 60 61 62 66 68 69 68 66 64 62 60 60 61
40 43 45 44 43 44 43 44 44 42 46 48 52 54 58 57 56 57 59 63 66 69 71 71 72 75 75 67 68 65 65 66 67
43 44 46 44 43 43 42 44 45 44 46 49 52 56 58 60 63 63 66 71 74 77 79 79 77 75 72 71 70 68 69 71 71
44 45 44 43 43 43 42 43 45 45 47 50 53 58 61 66 67 71 72 77 81 81 81 80 75 75 77 73 72 73 75 75 71
42 41 41 41 42 41 42 42 42 45 48 50 52 57 60 63 67 72 75 75 76 78 76 76 77 77 75 75 76 79 79 76 76
39 39 40 40 39 41 42 42 44 44 46 50 53 55 57 60 64 66 69 70 70 71 74 76 77 78 81 82 82 83 81 81 82
41 40 41 41 40 40 41 42 43 44 47 49 52 54 57 59 62 65 68 71 72 74 77 80 82 84 85 85 86 87 86 88 89
42 42 43 44 44 45 45 46 47 46 47 50 54 57 60 62 65 69 72 74 77 80 83 85 87 88 89 90 90 92 94 95 96
44 45 46 48 49 51 51 52 54 55 53 54 55 58 64 64 68 73 75 76 79 82 85 87 89 90 92 96 98 100 101 101 104
44 46 48 50 51 52 53 55 56 59 61 61 62 65 67 69 74 78 82 83 86 88 91 94 97 100 102 104 106 108 110 111 113
43 45 48 50 52 54 56 57 58 60 64 67 69 69 69 71 70 78 85 89 91 94 97 99 102 106 109 110 110 110 111 114 115
45 48 50 52 55 57 60 61 64 66 67 70 73 75 78 80 77 75 84 90 94 96 98 100 103 105 106 108 111 114 117 120 121

GFSFLT1_250_spd_018.txt.gz
Wind_Speed
55 57 58 59 60 63 66 67 66 66 67 62 59 59 58 58 60 61 57 53 52 52 50 50 48 48 45 45 45 43 46 44 45
63 63 64 63 65 67 70 68 68 63 59 57 56 56 57 59 59 58 54 51 50 51 52 48 50 49 45 45 45 44 46 46 44
67 67 67 64 68 68 68 65 59 55 53 53 53 55 57 58 58 55 52 49 51 52 50 48 54 54 48 47 46 49 50 49 48
67 65 65 68 70 65 61 56 51 51 51 52 53 54 55 55 52 51 50 51 52 51 50 49 55 59 56 56 54 53 54 51 49
64 67 71 68 62 59 55 49 48 50 51 52 52 53 53 52 50 50 50 51 53 52 52 56 61 61 63 59 57 57 51 48 50
68 69 69 62 57 54 47 44 47 49 50 52 53 51 50 50 50 51 51 50 52 55 55 55 59 62 59 61 60 58 53 56 57
69 67 63 59 54 46 43 45 48 49 50 51 52 50 48 49 50 53 53 53 53 56 56 55 60 64 64 65 65 60 60 62 63
66 64 59 52 47 43 44 47 49 49 48 48 49 49 49 49 51 54 57 55 55 55 57 59 62 66 65 64 63 63 64 67 66
64 60 51 46 42 43 46 48 49 48 48 48 48 50 50 50 52 56 60 61 58 59 58 60 63 66 66 66 69 71 71 72 74
58 52 46 42 43 44 47 48 47 47 47 46 47 49 50 52 54 59 62 66 65 67 65 62 66 69 71 74 74 77 79 80 78
52 45 44 44 45 46 46 44 44 46 45 45 47 47 48 51 56 59 63 67 72 72 74 73 74 75 78 78 80 83 82 81 76
47 44 45 46 42 44 42 42 42 43 43 44 46 46 46 49 52 56 63 66 70 76 77 79 82 83 85 85 87 90 86 83 81
45 44 44 43 43 42 43 42 41 41 42 44 45 46 47 48 50 53 55 59 67 71 79 85 89 91 89 85 84 84 82 83 83
42 44 42 43 44 44 43 43 44 46 47 48 48 48 48 51 52 55 56 59 61 64 69 72 75 79 82 83 84 85 85 86 85
43 45 45 49 49 48 48 48 48 50 52 54 56 56 55 57 58 60 61 63 65 68 71 74 77 79 82 84 86 88 89 89 90
48 48 50 52 50 51 52 51 51 52 54 56 58 60 60 63 64 67 68 70 73 75 77 80 82 84 87 89 91 92 94 94 95
39 41 44 44 45 47 48 50 51 51 53 57 59 62 65 65 67 70 73 75 79 82 85 87 89 91 94 96 99 101 102 103 104
38 40 41 42 43 46 48 51 54 56 56 57 60 61 65 69 74 77 80 81 84 87 90 93 95 97 99 102 105 107 108 110 112
41 43 44 46 48 51 53 55 58 62 64 66 67 68 68 69 70 79 85 89 90 93 95 98 101 104 106 108 110 112 114 115 116
44 46 49 51 54 56 58 60 63 65 69 70 73 75 76 77 74 72 80 87 93 95 97 102 105 107 109 111 112 115 116 117 117

GFSFLT1_250_spd_021.txt.gz
Wind_Speed
47 51 56 59 64 64 66 67 68 69 69 70 69 71 73 70 67 65 63 62 62 63 63 61 57 51 52 52 49 48 47 45 44
52 56 59 62 64 66 67 62 67 69 70 70 70 67 62 61 58 58 59 60 59 62 62 57 51 51 52 55 52 48 46 43 47
56 58 65 66 64 66 64 64 73 69 65 64 61 59 57 55 54 53 55 58 58 59 56 54 52 52 53 56 51 52 50 51 49
60 63 68 66 65 65 66 70 69 63 61 59 55 54 53 51 52 53 55 56 57 56 54 52 53 52 56 55 53 50 56 60 59
65 68 72 70 68 70 70 72 68 63 58 53 52 48 49 50 51 53 55 56 54 54 54 53 53 54 55 54 53 56 63 59 64
71 73 74 74 70 70 71 70 65 57 52 50 48 49 51 51 51 51 53 54 52 52 53 52 53 54 55 55 57 55 57 59 60
72 71 70 69 71 75 70 65 56 49 48 47 48 49 51 50 50 49 51 51 51 52 54 56 56 55 56 59 62 59 59 62 65
69 71 70 72 74 74 66 56 49 46 48 48 50 50 49 49 49 48 49 51 51 52 54 60 62 59 58 60 62 62 64 65 66
71 70 69 74 73 66 57 50 45 47 48 49 47 45 46 47 47 47 48 51 53 54 57 62 65 65 63 62 61 63 64 66 67
70 70 71 68 66 58 50 45 44 45 48 46 44 43 44 45 45 45 46 49 53 56 60 62 66 70 69 68 67 68 67 69 73
69 70 66 66 59 49 46 43 43 44 43 43 42 43 44 45 45 47 47 47 49 52 58 63 67 70 75 77 77 77 77 75 76
70 65 61 56 47 42 42 44 45 46 48 47 44 44 45 47 47 48 48 50 51 52 55 57 62 70 75 80 84 88 88 88 90
67 56 54 45 45 44 44 45 48 50 51 52 52 52 54 54 55 55 55 55 55 56 59 60 62 64 66 69 74 80 86 92 94
55 54 46 45 45 46 46 48 50 50 51 52 53 53 54 55 56 57 59 61 62 63 65 65 67 68 70 73 75 77 79 82 85
51 47 45 45 47 45 44 45 46 47 49 51 52 53 55 56 58 60 62 64 66 69 71 72 74 76 78 80 82 83 85 87 89
46 44 42 40 41 42 43 43 43 46 49 52 54 55 58 61 64 66 68 69 71 73 75 77 79 82 84 86 88 90 92 94 96
41 42 41 43 43 43 45 47 47 49 51 53 55 58 61 62 66 70 73 75 77 79 81 83 85 87 90 92 93 96 98 99 102
42 42 42 44 46 46 48 51 53 55 56 58 60 62 67 71 79 81 81 82 84 85 86 88 90 92 94 96 98 101 101 103 105
42 45 46 47 48 50 53 57 60 62 65 67 69 71 74 76 77 86 89 88 87 89 91 94 96 98 99 100 101 103 104 106 107
44 47 50 50 52 55 58 61 64 68 71 74 77 80 83 86 85 82 85 87 89 89 91 94 97 99 102 104 106 108 110 111 114

GFSFLT1_250_spd_024.txt.gz
Wind_Speed
50 53 58 57 55 55 54 57 59 66 66 64 65 68 68 65 63 64 64 63 63 61 59 60 61 60 61 59 59 57 54 49 46
54 58 58 57 55 58 59 63 67 70 66 68 67 70 68 63 59 59 57 56 56 56 55 56 58 57 59 58 58 53 49 51 49
53 51 51 54 57 59 65 68 73 70 70 73 73 71 66 61 57 55 52 50 49 50 52 53 54 57 58 58 55 52 52 51 50
56 55 55 56 60 64 69 71 70 66 69 74 73 68 61 55 51 50 47 48 48 49 51 53 56 56 55 54 53 54 54 53 54
62 61 57 60 63 67 72 72 69 68 71 76 70 63 55 49 47 46 47 48 49 50 51 51 53 54 54 51 52 52 53 54 55
52 56 56 62 64 69 70 71 67 68 72 74 65 54 48 46 47 48 49 48 48 49 48 48 50 50 52 51 51 53 54 55 54
61 60 61 66 68 69 70 70 69 67 70 67 55 49 47 46 48 47 45 45 46 45 46 47 47 48 51 52 54 54 55 55 56
65 64 66 70 71 70 73 71 68 67 67 57 47 43 44 46 46 46 44 44 44 44 45 46 46 49 51 52 57 58 60 59 60
67 68 70 73 71 70 74 74 66 66 55 46 42 42 40 40 41 42 43 44 46 46 46 45 46 48 51 53 58 63 65 67 67
68 72 72 72 72 69 73 69 64 54 45 41 40 41 43 43 43 43 43 43 44 46 47 47 48 48 49 53 59 63 69 71 73
71 72 73 72 70 70 70 64 57 46 42 40 43 45 46 47 47 48 49 50 52 52 53 53 53 53 53 54 55 58 65 70 77
69 68 68 68 67 66 60 60 50 45 44 43 46 49 48 48 48 50 50 51 52 54 55 56 58 60 60 61 61 61 63 65 70
64 67 69 68 67 58 57 51 45 45 43 42 44 45 45 45 47 48 50 51 53 55 57 59 60 62 64 66 67 69 70 71 72
68 69 69 61 55 53 52 45 44 43 43 45 45 46 47 49 51 53 54 54 56 59 61 64 67 69 71 73 73 74 75 76 78
69 67 57 52 50 49 44 43 45 45 47 48 49 50 51 52 55 56 58 60 62 65 68 71 73 75 77 80 81 81 82 83 84
59 54 51 49 47 44 43 44 45 48 50 51 51 54 57 59 63 66 68 70 73 76 78 81 84 87 86 86 86 88 89 90 91
51 48 48 46 43 43 43 46 49 51 53 54 57 60 62 64 67 71 74 77 81 83 85 89 92 94 95 94 93 93 94 95 96
47 47 43 43 42 44 47 50 51 53 55 57 59 61 64 67 77 82 83 85 89 91 95 99 102 101 100 98 97 97 97 98 100
45 43 43 43 46 49 52 54 56 59 61 63 65 68 69 71 74 87 93 95 99 103 109 108 101 97 94 94 94 95 97 99 101
42 43 45 48 51 54 57 59 62 65 66 70 72 75 77 81 79 79 90 98 105 111 106 99 98 99 99 99 99 100 100 100 101

GFSFLT1_250_spd_027.txt.gz
Wind_Speed
47 46 47 49 51 54 56 58 56 53 56 59 65 68 70 68 65 69 70 67 62 58 56 56 55 57 57 56 55 56 55 56 56
49 48 51 51 52 56 58 54 52 55 59 63 68 70 68 65 66 71 67 61 55 51 48 48 47 47 49 51 51 52 52 54 54
51 54 55 56 57 56 56 60 56 59 60 65 68 68 64 63 67 67 62 52 46 45 43 44 45 47 47 49 51 53 54 55 54
58 54 58 58 57 50 54 54 56 60 63 68 68 69 68 67 67 63 53 46 42 42 43 46 47 47 48 49 51 53 54 56 55
61 59 57 55 53 61 57 58 60 62 67 71 67 70 70 66 62 56 49 45 45 45 45 44 44 45 47 49 49 51 52 54 54
63 66 63 63 66 63 62 64 64 68 71 70 67 71 68 66 56 47 45 45 45 44 44 43 43 44 45 45 47 49 50 50 52
61 63 67 63 66 61 67 66 68 71 70 69 66 70 68 59 47 44 43 40 39 40 41 42 42 42 43 44 46 47 48 49 51
67 65 62 62 62 67 67 66 69 71 69 66 65 67 64 49 43 41 38 38 37 37 37 38 39 40 40 41 43 45 47 49 50
68 69 68 69 68 67 69 70 71 68 66 63 64 63 56 46 41 40 40 40 40 41 41 43 44 45 46 45 46 46 47 49 50
70 67 69 70 70 69 70 71 69 65 66 65 60 58 49 44 42 42 42 42 42 42 43 44 45 46 46 47 48 50 51 51 52
69 67 68 70 71 70 70 70 65 66 65 59 56 52 45 43 42 43 43 42 43 44 44 46 47 47 48 50 51 52 54 56 58
67 68 69 69 67 68 65 64 67 69 61 55 53 47 44 42 42 43 44 45 46 48 48 49 50 50 52 54 56 58 60 62 64
65 64 65 67 66 64 63 65 68 64 55 54 51 47 45 44 46 47 48 49 50 51 52 53 56 58 59 60 62 64 66 67 68
64 64 64 64 63 63 66 69 64 55 54 52 49 47 46 48 51 51 52 53 54 56 58 61 64 67 68 71 73 75 77 78 80
64 64 64 63 65 67 67 64 55 54 53 51 48 47 50 53 55 56 57 58 60 61 63 65 68 71 73 76 79 81 83 85 88
60 63 64 66 68 67 59 55 54 53 50 48 48 52 54 57 60 61 62 64 66 69 71 74 77 79 81 84 88 91 93 97 99
58 61 62 62 58 54 53 52 51 50 49 51 54 57 58 60 64 67 69 71 74 77 79 82 85 87 90 93 96 98 102 101 96
55 56 53 50 52 52 51 50 48 50 52 57 58 61 64 66 72 75 75 77 81 85 87 89 93 96 98 101 104 106 104 95 93
49 47 49 52 49 50 49 48 51 53 57 60 63 66 68 70 72 82 86 87 91 94 97 101 104 108 110 112 113 108 99 98 98
48 47 49 48 48 48 49 53 55 58 62 64 68 72 74 75 75 76 86 92 96 99 102 107 111 116 118 119 113 108 107 103 98

GFSFLT1_250_spd_030.txt.gz
Wind_Speed
52 52 51 50 49 50 51 52 53 55 57 56 51 52 57 58 65 66 69 69 67 69 67 65 57 53 48 47 47 46 48 51 52
55 56 54 52 53 51 53 53 57 59 59 48 52 52 57 62 66 70 72 70 70 66 65 56 47 45 42 42 42 43 45 47 49
59 58 59 56 56 56 56 54 53 53 51 55 56 59 62 64 70 74 71 68 67 68 59 50 45 44 44 45 44 45 46 48 49
63 62 60 61 61 62 61 60 60 59 61 62 60 64 66 69 73 71 69 67 68 63 51 47 48 49 48 46 45 46 46 46 49
66 66 65 63 64 67 65 64 66 68 67 62 62 65 68 69 71 68 64 65 64 55 48 47 46 45 43 42 43 44 45 46 45
67 64 64 64 64 66 59 60 62 62 60 59 65 68 68 71 66 64 62 62 59 47 45 42 40 37 36 37 37 39 40 41 42
69 69 67 66 67 65 67 68 69 67 63 67 68 69 68 69 64 66 60 60 55 48 46 42 39 37 36 36 36 36 36 38 38
71 71 71 71 69 68 68 68 68 67 69 68 70 70 68 67 65 62 60 57 50 47 45 45 43 41 41 40 40 39 40 40 40
76 76 74 74 73 71 71 68 68 68 68 68 70 70 66 66 65 60 57 54 49 49 45 43 41 40 40 40 41 41 41 42 43
79 79 78 76 75 73 72 70 68 67 69 70 69 66 65 66 63 55 55 50 45 42 41 42 42 42 42 42 43 43 45 46 47
74 74 72 72 72 69 68 68 69 68 68 67 67 66 66 67 59 55 54 50 45 43 43 44 45 45 46 46 47 48 50 52 54
75 75 74 73 72 70 67 67 68 66 65 66 67 67 69 62 58 55 54 50 47 47 49 50 51 52 52 51 52 54 56 57 59
71 75 76 77 75 74 72 70 67 65 63 65 66 69 69 60 57 54 54 52 51 52 54 56 57 56 57 58 58 60 61 62 64
56 58 59 63 65 66 66 66 66 63 64 66 68 69 61 58 56 55 55 55 55 57 60 60 61 61 62 64 66 67 69 71 73
52 52 54 55 58 60 62 63 64 66 67 66 68 60 58 56 57 56 56 58 59 62 64 65 66 69 71 72 75 76 78 80 82
53 53 54 56 55 56 60 63 65 65 66 65 58 58 57 56 55 57 59 62 64 67 70 71 73 75 76 77 80 83 86 88 90
54 53 52 51 53 56 60 61 63 63 59 59 58 57 55 55 58 61 64 66 69 72 75 76 78 78 80 85 88 91 92 95 97
54 52 52 53 53 54 54 55 54 55 58 58 56 55 55 57 63 66 69 71 74 77 79 80 81 82 85 87 91 94 97 99 102
55 52 54 54 54 53 52 53 55 55 55 56 56 57 59 61 65 73 76 78 81 83 87 87 90 91 92 94 96 99 101 104 108
57 56 56 57 56 55 54 53 50 52 54 56 59 62 64 66 68 74 81 82 87 89 93 96 99 100 102 103 105 108 110 114 116

GFSFLT1_250_spd_033.txt.gz
Wind_Speed
56 56 55 54 53 53 53 53 51 51 53 55 56 58 56 51 48 57 56 60 63 67 71 70 68 67 64 62 51 46 43 42 41
59 58 57 57 57 57 57 57 56 55 54 55 58 58 61 55 58 63 61 63 65 67 68 67 63 64 61 53 46 47 47 44 44
64 62 61 61 61 61 59 60 58 59 60 63 64 64 63 65 65 62 61 64 66 67 67 64 65 63 56 49 48 48 47 46 47
68 67 65 65 65 63 63 64 65 62 63 63 61 57 59 63 60 57 63 67 67 67 68 65 66 60 51 48 46 43 41 39 39
73 72 71 69 68 69 66 68 66 65 65 65 65 62 65 65 66 67 67 69 68 67 65 64 61 55 50 48 43 40 36 33 33
77 77 77 74 71 73 73 69 66 67 66 67 67 67 67 66 65 66 67 69 67 65 63 60 57 53 49 45 42 41 39 37 34
66 66 73 79 77 69 67 68 68 70 72 69 69 69 67 68 67 65 66 68 66 63 62 57 54 51 50 51 45 44 42 39 37
67 66 66 66 66 69 70 72 74 74 75 74 73 72 70 68 67 66 67 67 64 63 61 55 53 48 47 44 40 38 38 37 36
81 80 79 78 78 78 79 79 80 79 78 77 76 73 69 68 68 68 67 64 64 63 61 54 52 48 46 43 41 41 41 40 39
79 87 87 84 80 79 80 79 79 80 77 75 73 72 70 69 69 68 65 64 63 64 60 54 52 50 47 45 47 46 46 45 45
73 74 75 77 78 78 78 79 78 77 76 74 73 72 67 67 66 64 65 65 63 66 59 55 53 52 50 50 50 51 51 51 51
69 71 73 75 76 77 77 76 78 78 77 76 73 70 68 68 67 64 66 66 65 66 58 56 56 55 54 54 55 55 57 56 56
63 64 66 69 70 72 77 75 73 72 71 71 69 69 66 64 65 66 68 67 67 59 57 58 58 57 57 58 59 60 60 61 63
60 60 61 60 58 58 57 56 56 58 59 61 63 62 62 65 66 68 67 67 61 58 60 60 59 59 61 62 63 64 67 68 70
62 61 60 59 60 58 57 55 55 55 55 55 57 59 62 65 66 64 65 60 58 60 61 61 61 63 66 67 68 68 71 72 73
66 64 63 59 58 58 58 56 53 52 53 55 58 59 60 63 64 62 59 58 60 61 63 63 64 67 70 72 74 75 76 77 79
68 65 64 62 59 56 57 54 53 54 53 53 54 57 59 58 57 59 58 59 61 63 65 67 69 71 74 76 78 80 83 84 86
67 67 65 62 61 57 57 55 55 56 56 55 55 52 56 56 56 56 57 60 63 66 68 71 73 76 79 81 83 86 89 90 92
68 69 66 65 63 60 58 57 57 59 58 59 56 57 53 52 55 59 62 64 68 70 74 78 80 83 84 87 89 91 93 95 97
70 69 67 66 64 62 61 60 60 60 60 59 58 59 58 58 59 63 67 69 72 74 78 83 87 90 91 92 93 95 98 99 102

GFSFLT1_250_spd_036.txt.gz
Wind_Speed
58 57 57 57 58 58 57 56 55 55 55 56 56 55 53 53 53 55 59 59 58 60 60 57 60 63 65 63 63 65 64 56 48
63 63 61 61 62 61 61 60 59 58 58 58 58 58 55 55 58 59 57 56 57 57 57 61 66 65 64 62 62 63 60 51 48
67 66 66 66 65 64 64 64 63 64 62 62 61 61 62 59 61 62 61 59 61 62 64 63 62 63 62 61 61 57 54 46 45
73 72 71 69 69 69 69 68 67 68 67 66 65 65 64 61 61 63 65 63 65 63 61 61 61 62 61 61 60 54 50 44 43
77 76 76 76 74 73 74 73 73 73 72 71 71 71 66 62 63 61 64 65 67 65 65 64 62 62 60 62 58 52 46 45 45
80 79 80 80 77 71 75 77 78 79 79 77 76 68 63 63 68 68 69 69 69 67 65 66 64 63 60 61 56 51 46 45 44
84 84 80 76 72 73 75 70 73 67 70 73 66 65 67 70 76 73 74 73 71 67 66 66 65 62 60 60 53 51 47 46 43
86 86 87 85 82 75 70 69 70 67 67 69 73 74 75 76 77 77 77 74 69 70 67 67 65 61 59 59 55 51 47 46 44
80 81 79 85 86 87 87 82 81 82 82 79 81 80 79 78 76 79 70 72 70 70 67 65 63 61 59 60 57 52 49 48 46
71 72 72 73 74 76 77 81 83 86 83 85 85 80 80 79 78 78 76 72 67 65 65 66 62 61 62 61 55 53 51 50 49
70 69 70 70 70 72 73 72 72 72 74 75 76 78 79 76 76 78 77 70 67 68 66 63 62 64 63 59 55 55 54 53 53
71 69 68 69 68 68 69 70 70 72 73 74 75 76 76 81 77 73 67 65 66 64 63 63 64 63 61 58 56 57 57 56 55
72 70 69 68 68 68 67 66 65 66 64 63 64 63 61 59 58 56 57 60 60 61 63 63 63 61 60 57 58 58 59 59 59
74 73 70 71 69 67 65 63 63 62 59 59 59 57 56 57 55 54 55 57 58 61 60 60 60 59 58 58 59 60 61 61 62
69 71 72 72 71 69 67 65 64 60 58 58 58 57 56 54 53 55 56 58 57 59 60 59 56 57 59 60 62 63 63 65 67
66 67 68 70 72 72 70 69 67 62 59 56 55 56 54 54 54 53 54 56 57 54 54 56 57 58 59 61 63 66 68 70 72
63 65 68 67 71 72 72 71 70 66 61 58 56 55 56 57 55 56 58 55 58 57 56 57 57 59 61 63 66 69 72 75 78
59 62 64 67 69 71 71 71 70 68 63 61 58 56 58 59 60 60 59 58 58 57 58 60 62 63 65 68 72 75 78 82 84
61 63 63 69 69 71 70 68 68 67 66 63 61 60 60 61 62 63 60 62 61 62 65 67 68 70 72 75 78 80 83 87 89
63 62 64 67 69 70 75 72 70 70 69 67 64 64 64 63 62 65 64 64 67 68 70 72 75 76 78 81 83 85 88 91 94

GFSFLT1_250_spd_039.txt.gz
Wind_Speed
60 61 60 60 59 58 59 59 59 59 58 59 59 57 58 57 56 56 56 56 55 56 58 58 59 57 60 61 62 63 59 60 59
67 67 67 66 65 65 64 63 62 62 63 64 62 62 61 61 63 58 59 60 62 59 58 61 62 59 61 63 64 62 61 60 57
72 72 72 72 72 71 70 68 68 68 67 68 66 66 66 66 64 64 63 65 63 61 62 60 60 61 63 66 61 60 60 60 58
77 78 78 77 76 75 75 75 75 73 73 73 73 71 72 72 72 70 68 69 65 61 63 64 65 67 70 66 64 62 60 59 58
83 82 81 81 80 79 78 78 77 79 78 78 77 73 75 74 67 70 75 71 70 64 66 69 71 72 71 69 65 63 60 59 57
85 84 85 85 84 84 82 80 78 79 78 77 78 73 73 71 69 68 67 65 65 69 70 72 73 74 71 65 64 63 60 58 55
86 87 87 88 85 86 84 85 84 83 81 82 78 72 72 72 69 66 63 69 73 77 75 72 72 71 70 66 66 61 58 57 53
82 84 85 87 86 86 85 85 85 86 86 88 83 81 77 78 80 77 80 80 77 79 78 73 75 72 71 67 64 59 59 55 54
80 82 82 81 80 78 79 80 80 81 83 85 89 87 85 88 89 87 85 84 77 77 79 79 74 72 71 67 63 61 58 57 55
72 74 74 75 73 72 71 71 70 72 73 72 75 74 72 73 71 74 72 71 73 74 76 75 76 76 70 68 64 59 58 58 57
70 71 72 71 71 72 72 71 71 69 69 69 68 67 67 69 71 72 73 74 74 75 73 71 66 64 63 62 59 58 60 57 55
66 68 70 72 74 76 75 74 73 71 69 68 68 66 65 67 68 67 66 64 63 61 62 59 57 57 57 58 58 58 56 57 55
60 62 65 68 71 75 77 77 75 73 71 70 69 66 64 62 62 61 61 61 59 59 58 55 55 55 56 56 57 58 57 56 55
59 60 61 62 67 70 73 77 76 75 74 74 71 68 65 61 59 60 61 60 59 57 55 56 57 57 57 56 57 57 56 56 56
58 59 59 60 63 66 69 72 74 76 76 76 75 72 69 65 61 60 59 59 56 55 55 55 54 55 54 53 54 57 58 56 56
58 59 61 61 61 62 65 67 70 72 74 75 76 75 74 68 67 64 61 60 59 57 57 58 58 58 57 59 59 59 58 57 59
55 58 61 62 61 59 61 65 67 69 72 74 75 76 75 72 69 68 65 63 61 62 61 61 60 58 57 58 60 59 60 62 65
54 57 63 63 63 61 61 63 65 66 67 69 70 72 73 73 71 71 70 67 65 65 64 63 62 60 62 62 63 64 67 69 71
46 53 57 59 61 63 66 65 66 67 69 68 67 68 69 71 71 71 72 71 70 69 69 68 66 64 64 66 68 69 72 74 77
53 57 59 60 63 64 66 67 69 69 69 70 69 68 69 73 73 75 75 75 74 73 74 73 72 71 70 71 72 73 76 78 80

GFSFLT1_250_spd_042.txt.gz
Wind_Speed
57 58 59 60 61 61 62 64 64 63 63 61 62 64 63 63 62 63 64 62 61 61 61 60 61 62 61 61 59 58 58 59 62
63 65 66 67 66 68 70 71 70 70 69 68 69 68 67 67 65 67 67 65 64 65 64 65 66 64 63 63 63 60 62 65 67
69 71 71 72 73 74 75 76 76 74 73 73 73 73 72 72 72 71 71 71 71 70 69 67 66 69 67 66 64 64 68 68 68
73 73 74 74 76 79 79 81 81 80 79 79 78 78 77 76 76 77 77 76 71 70 68 66 70 72 70 65 66 68 69 68 68
75 75 74 76 79 81 82 83 83 83 84 82 80 82 82 80 79 76 77 75 73 76 69 74 70 70 64 68 68 71 73 69 67
79 81 81 83 83 84 84 85 85 85 85 82 84 84 82 85 84 83 80 74 76 72 71 72 71 72 69 73 75 73 74 73 73
86 86 85 83 84 85 83 84 85 87 84 82 85 86 88 87 84 84 83 82 83 83 79 79 80 84 83 81 80 78 76 72 69
85 83 83 85 84 82 81 82 83 83 81 81 78 81 81 81 81 83 83 85 89 87 86 85 86 85 85 76 72 73 72 70 67
80 80 79 76 77 77 77 78 78 78 79 79 76 75 77 76 73 73 75 73 75 76 74 71 68 70 70 72 73 72 72 71 69
76 74 73 72 72 73 72 72 72 72 72 73 71 71 71 70 69 67 66 65 65 66 66 67 70 70 68 68 66 62 60 58 55
70 69 70 70 68 69 69 70 71 72 73 73 73 73 73 73 71 69 66 65 64 65 66 66 66 62 60 59 59 56 53 52 51
68 66 66 68 68 67 68 68 68 69 72 73 73 73 76 76 75 72 70 68 67 66 64 65 63 62 61 60 58 56 51 50 52
66 66 66 66 65 65 66 66 66 66 67 70 72 73 75 76 75 75 73 71 70 67 65 64 64 63 61 59 57 55 55 55 54
61 61 61 63 64 64 65 65 65 65 66 67 69 71 73 75 76 76 75 74 73 71 68 66 65 63 60 58 56 55 54 55 57
57 58 57 60 61 62 64 64 64 64 64 66 68 69 70 72 74 75 75 75 75 73 72 71 68 65 62 61 59 57 57 58 57
55 54 55 56 56 58 60 62 63 64 64 64 65 67 69 70 72 73 74 74 75 75 74 74 73 70 67 66 63 61 60 59 60
57 56 54 53 56 59 60 61 62 64 66 64 66 66 66 66 69 71 73 73 74 75 76 76 75 74 73 70 67 65 64 62 61
58 59 59 58 60 63 61 57 59 62 64 66 68 68 68 66 67 68 69 70 72 73 74 75 75 76 76 74 73 71 69 68 66
60 60 59 57 60 60 58 63 67 70 68 65 67 67 69 69 69 70 71 71 72 73 75 77 77 78 79 80 79 78 75 74 73
58 61 61 60 60 60 61 63 66 67 68 66 66 68 67 68 69 71 72 73 75 76 78 78 80 81 82 84 84 83 83 82 80

GFSFLT1_250_spd_045.txt.gz
Wind_Speed
57 55 56 57 56 57 58 62 63 65 66 67 68 70 69 70 71 70 68 68 68 68 66 66 65 65 67 65 65 64 66 65 63
58 59 61 61 63 65 68 68 68 68 69 70 72 74 75 75 75 75 74 74 74 71 71 71 70 71 71 67 66 66 66 65 66
64 64 65 67 68 70 69 68 70 72 72 74 77 79 78 77 79 79 78 77 77 76 77 74 73 71 71 72 71 69 65 70 65
69 69 69 69 70 70 72 73 75 76 78 80 81 82 81 81 82 82 81 80 81 79 80 78 76 76 76 71 69 64 67 72 64
70 70 73 74 75 77 78 81 82 82 82 83 84 84 85 86 85 84 84 85 82 81 80 79 80 79 77 77 79 76 72 72 72
73 75 77 78 82 82 85 84 85 85 84 84 86 85 84 85 83 81 83 84 83 80 81 80 80 79 80 80 81 83 84 82 83
75 78 79 82 83 83 85 86 86 85 85 85 86 85 83 83 81 80 79 78 78 77 77 76 77 78 77 79 77 75 75 70 67
76 79 82 84 83 85 86 87 87 87 85 82 80 78 78 75 75 75 73 74 74 71 70 68 68 68 68 66 65 64 63 63 65
81 85 84 83 86 84 86 86 84 82 79 77 77 75 74 72 71 70 69 69 69 68 66 64 63 61 59 58 58 59 62 62 59
80 81 82 82 84 83 82 82 80 76 75 73 75 74 72 71 71 71 70 70 69 68 67 66 64 63 61 59 60 60 60 58 57
81 80 81 80 79 79 79 76 75 72 71 72 74 74 73 72 71 70 71 71 71 70 69 68 67 65 64 62 60 60 59 59 59
73 75 76 74 74 72 71 69 70 70 71 70 69 72 73 73 72 71 71 71 70 70 71 69 68 67 66 66 63 62 59 59 58
68 66 67 66 65 67 67 66 65 66 67 67 67 68 69 69 70 70 71 71 70 70 70 71 70 69 69 68 67 66 64 62 60
64 63 62 63 62 62 62 62 61 61 62 63 64 66 67 67 68 68 68 68 68 68 69 70 70 71 70 70 69 69 67 65 64
66 62 60 61 63 61 61 60 59 59 58 59 59 62 63 65 66 68 68 67 67 67 67 68 69 70 70 70 70 70 71 70 69
70 68 64 63 62 60 60 60 60 59 59 57 59 61 61 60 63 65 67 68 68 69 67 66 67 68 70 71 71 71 73 73 72
71 68 63 60 60 59 60 63 64 64 63 62 59 57 60 65 67 67 67 67 68 69 69 67 68 68 69 70 70 71 72 74 75
67 62 61 62 64 64 63 64 66 65 63 64 65 64 64 64 66 65 65 66 66 66 69 70 71 72 72 72 72 72 72 74 76
68 65 63 58 63 64 65 68 70 68 66 68 72 71 70 71 68 66 65 62 63 65 67 68 71 72 74 76 77 77 78 79 81
75 69 68 69 67 65 69 70 72 72 73 75 74 75 76 74 72 69 67 64 62 61 62 64 67 70 73 75 79 80 83 85 86

GFSFLT1_250_spd_048.txt.gz
Wind_Speed
54 55 55 56 56 56 57 58 60 61 63 63 64 62 63 64 66 68 70 72 72 73 73 72 71 72 71 70 69 69 69 67 65
55 54 55 57 59 60 61 61 62 63 65 65 66 67 70 72 74 75 76 77 78 78 76 77 76 75 74 73 73 72 72 71 69
57 57 58 60 63 63 64 64 64 67 68 70 71 73 76 79 78 78 78 81 80 79 80 80 79 79 77 76 76 75 73 74 68
60 61 62 63 64 65 66 67 69 70 71 73 75 77 78 79 80 81 82 83 81 80 81 79 76 77 77 74 75 76 74 72 71
60 61 64 65 65 64 66 68 69 70 73 75 76 76 79 80 83 83 83 83 83 80 78 76 74 74 72 72 71 71 72 72 74
66 68 68 67 68 70 71 74 74 76 78 80 78 80 81 82 84 84 82 81 79 76 74 73 72 69 68 69 66 66 66 65 66
70 73 72 73 73 72 76 76 78 78 79 81 82 82 83 83 83 83 82 79 75 73 69 68 67 65 63 63 62 60 58 57 57
74 74 73 74 75 80 79 78 77 80 82 82 82 85 84 83 83 80 77 76 72 71 68 66 66 64 63 61 61 60 57 54 51
77 78 77 77 79 81 80 81 82 81 82 84 86 82 82 81 78 76 73 71 71 69 68 68 67 66 65 64 63 61 59 56 54
78 77 77 78 78 80 80 81 79 80 81 81 80 78 76 72 70 68 68 68 67 68 69 69 68 67 66 65 64 62 60 58 57
78 75 72 72 74 71 74 76 76 76 76 73 71 71 68 66 66 65 66 65 66 66 65 65 64 65 66 65 65 64 62 61 59
73 74 71 70 70 69 71 72 70 67 68 66 64 65 63 62 62 62 61 62 64 64 63 62 62 61 62 63 63 64 63 64 63
68 68 65 64 67 70 70 69 69 64 62 61 61 60 59 57 57 57 58 59 59 60 62 62 62 63 62 63 62 63 63 64 64
70 69 67 65 71 73 74 69 65 65 65 62 60 60 56 54 54 54 55 55 55 56 58 61 63 64 63 63 63 63 63 64 64
72 73 71 72 75 76 74 70 66 64 62 58 58 57 57 59 57 58 57 56 58 60 61 63 62 63 64 65 65 63 62 63 64
71 73 74 76 77 75 72 70 65 61 60 61 63 62 61 61 61 60 58 58 61 62 64 62 61 61 63 64 64 65 65 65 64
76 75 76 79 72 66 67 64 62 62 64 66 66 66 63 65 62 62 65 66 66 67 67 66 65 63 62 61 62 63 65 66 68
76 78 77 79 71 67 66 68 67 69 71 70 68 64 70 68 70 72 73 73 74 74 72 72 69 65 63 62 60 60 62 64 65
81 80 78 76 73 72 72 73 74 75 76 76 74 73 74 75 74 73 75 76 76 76 74 74 72 69 66 63 60 61 61 61 63
86 80 80 74 76 75 74 75 73 72 72 73 76 77 75 74 74 75 78 77 76 76 75 73 73 71 65 63 62 63 64 66 68

GFSFLT1_250_spd_051.txt.gz
Wind_Speed
53 53 53 54 55 54 53 54 54 55 57 58 57 58 58 59 61 63 64 66 68 68 70 71 73 74 75 74 74 73 71 70 70
53 55 55 55 55 55 56 56 57 58 59 59 61 60 60 60 59 62 66 67 68 71 71 74 74 76 76 75 75 76 72 69 70
55 55 56 57 57 58 57 57 58 60 60 59 59 61 64 65 65 68 69 69 70 71 74 73 73 74 75 75 73 71 71 68 68
58 58 58 57 56 58 57 60 63 61 62 64 64 66 70 70 69 68 71 72 73 74 76 76 75 75 75 73 70 70 67 66 65
61 60 60 58 61 62 64 66 66 65 65 66 67 71 71 70 70 74 75 75 75 79 77 77 75 74 70 69 66 64 64 62 59
62 61 62 65 66 66 68 67 67 69 71 71 72 74 74 75 76 77 77 77 76 78 76 76 73 69 66 65 64 62 61 59 57
63 65 67 67 66 68 69 70 71 72 72 73 74 74 75 76 78 78 77 77 77 75 74 73 66 66 63 63 61 60 61 60 59
65 67 66 68 71 71 72 72 75 76 75 74 76 77 73 73 74 76 77 77 72 71 66 67 65 62 61 61 60 60 60 60 59
71 70 72 73 73 74 74 76 76 76 74 74 73 71 72 73 71 71 72 71 65 66 61 62 63 61 61 60 59 58 58 59 58
73 75 77 78 77 78 76 74 74 72 71 69 69 67 68 69 72 68 65 62 59 58 56 58 59 59 59 59 59 58 58 57 57
77 77 78 77 76 75 71 72 72 70 70 69 67 70 71 71 63 59 58 57 55 56 54 53 53 53 55 55 57 57 57 56 56
76 77 75 71 70 70 70 68 68 68 66 66 70 72 70 66 64 60 57 55 50 48 49 51 51 50 51 52 54 56 57 57 56
73 73 74 71 72 72 68 67 67 70 69 70 72 71 67 64 61 60 56 52 51 53 50 48 49 50 52 53 55 56 58 58 58
76 75 76 75 75 70 66 68 71 70 70 73 73 69 65 62 59 57 54 54 52 53 51 50 52 55 54 56 56 53 54 57 59
76 74 73 72 69 66 68 71 70 69 73 74 69 67 62 60 58 59 58 56 54 55 55 57 61 60 60 59 56 56 55 54 55
73 71 71 68 67 70 70 72 75 74 73 71 70 71 69 68 68 68 64 59 61 62 63 64 63 61 61 59 59 59 59 57 55
77 75 76 75 75 73 74 74 77 77 74 72 73 73 73 72 74 72 70 69 70 70 68 66 65 63 63 63 64 65 63 61 59
79 77 75 76 76 77 77 77 77 75 75 75 72 72 75 79 79 76 75 71 71 69 67 68 66 66 66 66 67 67 67 65 63
84 82 78 80 80 80 81 81 79 79 79 76 74 73 73 76 73 73 71 71 72 71 72 70 70 70 70 68 69 68 68 68 66
88 86 80 82 85 86 83 81 84 80 76 75 72 73 75 76 72 70 72 76 76 77 74 74 74 73 74 71 72 71 72 71 69

GFSFLT1_250_spd_054.txt.gz
Wind_Speed
49 50 51 52 53 54 54 54 54 55 55 55 55 54 55 56 56 55 56 57 62 61 62 64 64 65 65 67 68 69 68 69 69
51 52 53 53 53 53 55 56 56 55 55 54 53 56 58 58 59 61 60 61 65 65 65 65 69 69 68 67 71 72 69 68 67
51 52 54 54 54 55 57 57 55 55 56 57 61 62 62 61 62 64 64 66 67 68 68 70 71 71 71 71 72 71 71 68 65
55 56 57 59 60 61 61 61 60 60 62 63 64 65 64 66 67 67 65 67 70 71 72 72 73 73 73 74 73 71 68 65 61
61 60 61 63 63 63 63 62 63 64 63 64 66 67 67 68 70 69 69 70 70 70 70 70 71 73 74 73 72 67 63 60 58
63 64 63 64 63 62 64 63 64 65 66 68 68 67 69 69 70 69 71 70 72 70 69 69 69 72 70 67 64 62 59 58 57
63 62 62 62 61 63 65 67 67 68 69 71 72 71 72 71 71 69 69 71 67 67 70 72 71 67 62 59 56 57 56 56 55
63 65 66 66 66 67 67 67 69 71 71 71 71 70 69 70 67 68 71 66 68 71 73 65 60 58 56 55 53 53 52 53 52
67 68 68 68 69 69 71 71 72 72 73 73 71 67 69 68 67 69 69 72 71 67 62 60 59 54 53 52 50 49 47 47 49
69 68 70 70 70 72 75 75 74 73 72 71 71 70 70 67 69 68 70 70 67 64 59 58 56 54 48 46 46 45 44 44 45
72 73 72 75 75 74 77 75 73 73 70 71 72 70 65 67 67 66 66 63 63 59 56 53 50 50 49 47 44 44 45 47 47
75 74 74 75 75 77 75 75 74 73 70 71 67 65 66 68 65 67 63 67 60 57 53 52 52 50 47 44 46 48 48 48 50
75 74 74 75 75 75 76 75 74 72 71 70 67 67 67 67 67 67 67 65 66 62 58 56 54 54 50 50 53 55 55 55 53
75 75 74 74 78 78 77 73 69 69 68 67 67 69 69 69 71 69 71 69 66 64 64 64 62 60 59 60 61 61 57 52 52
76 77 77 78 78 76 74 70 68 68 70 72 71 72 71 73 72 73 73 73 68 68 69 70 67 63 63 65 63 57 52 54 54
79 81 80 79 77 78 73 72 72 73 74 72 72 72 72 74 75 72 72 68 71 72 73 73 71 69 64 62 60 60 58 57 56
83 81 81 82 81 80 78 75 74 74 73 74 72 72 74 75 74 74 74 75 72 74 75 74 72 71 68 66 64 63 62 63 61
83 83 83 83 82 80 79 78 79 78 79 79 79 76 79 76 76 72 73 75 75 74 76 78 76 73 71 68 64 63 65 65 67
86 87 86 86 85 86 84 81 82 81 81 80 80 79 79 78 75 76 75 75 77 74 72 71 74 74 71 70 67 68 68 69 70
89 90 91 90 89 88 88 88 87 87 85 82 83 85 83 79 78 79 77 74 74 73 72 72 75 75 74 73 72 73 73 74 74

GFSFLT1_250_spd_057.txt.gz
Wind_Speed
45 47 46 46 48 49 51 52 54 55 55 55 56 57 57 54 55 57 59 60 59 60 63 65 65 66 66 68 67 69 70 70 68
46 47 48 48 50 51 52 53 55 55 58 59 58 58 58 59 61 60 62 64 63 62 63 64 65 67 68 67 69 69 68 68 69
49 50 51 52 53 54 55 55 56 59 61 63 62 61 62 63 64 64 65 67 65 66 66 65 66 65 68 68 67 66 67 67 69
54 54 55 56 56 58 60 60 63 64 64 62 61 61 62 63 64 67 67 70 69 69 66 65 64 67 67 65 65 67 69 69 65
55 56 57 57 59 61 63 65 64 63 63 63 63 64 65 66 68 68 68 68 65 67 66 65 67 65 65 69 69 65 60 59 56
59 59 60 62 63 64 65 64 64 67 67 66 67 65 66 68 69 67 70 68 68 66 64 66 67 67 68 65 57 54 53 51 51
61 62 64 66 66 65 65 66 67 68 67 68 68 69 71 70 72 70 68 66 66 63 64 65 66 65 61 57 51 50 49 48 47
64 65 67 66 65 67 69 69 68 67 67 70 72 73 73 71 71 72 67 65 61 62 63 61 58 55 52 49 48 48 46 44 42
68 69 69 70 70 70 70 71 71 71 73 73 75 75 72 71 70 70 68 62 59 60 58 58 58 53 52 47 45 45 46 46 41
71 71 72 72 72 72 75 74 72 73 74 73 72 73 72 71 69 68 65 63 63 60 58 55 55 59 53 51 49 48 47 43 42
73 75 76 75 74 75 76 75 74 72 72 70 71 73 72 69 67 65 66 66 65 63 60 60 60 59 57 55 55 52 52 49 45
74 74 74 74 73 74 75 73 73 72 71 70 71 72 71 69 66 66 69 68 67 66 64 64 64 62 58 59 57 57 57 55 57
76 75 75 74 74 73 74 74 74 72 73 72 73 71 70 70 67 69 69 69 69 69 68 66 66 66 62 60 62 62 61 57 57
79 79 80 80 79 79 78 77 76 74 73 73 73 70 71 72 70 72 71 70 71 70 71 69 67 66 65 67 66 64 62 58 56
84 84 85 84 81 79 79 79 79 77 76 76 76 73 73 72 73 72 71 72 72 73 71 68 68 67 68 68 69 66 66 63 61
88 88 87 85 83 82 84 83 81 79 77 77 78 74 72 76 76 74 75 75 73 74 71 74 72 72 71 72 69 70 66 60 58
92 89 90 89 89 89 86 86 83 81 80 80 79 76 76 77 77 75 76 75 75 75 76 76 73 72 72 77 75 70 66 63 61
96 91 90 91 90 90 89 88 86 85 82 82 81 79 79 81 80 77 77 77 77 79 79 76 77 77 76 73 72 69 70 69 68
92 92 95 92 91 90 91 89 88 89 86 88 84 85 83 83 82 80 80 77 79 83 81 83 77 76 71 69 70 74 73 70 69
99 97 94 94 94 93 94 93 92 92 92 89 89 89 84 80 81 79 80 83 88 85 84 79 78 74 76 75 76 77 75 74 74

GFSFLT1_250_spd_060.txt.gz
Wind_Speed
38 40 41 43 44 45 47 47 49 51 52 54 55 56 58 61 62 60 60 59 59 60 63 65 66 67 67 66 66 64 63 64 64
42 45 46 47 47 48 50 52 53 54 54 56 57 59 61 61 60 62 61 60 61 63 65 67 67 66 64 65 63 62 62 62 62
47 48 49 50 52 52 53 53 56 56 57 59 60 61 60 62 62 64 65 63 62 64 65 66 66 66 65 62 62 63 63 64 65
48 48 50 51 54 54 56 56 58 59 61 63 63 61 63 65 66 65 67 66 65 66 66 67 67 63 60 60 62 62 63 62 58
53 54 54 56 57 57 58 59 60 62 64 62 61 64 65 65 66 65 66 67 67 67 68 66 63 58 58 60 60 60 58 53 46
59 60 61 62 61 61 61 62 64 65 65 65 66 66 69 68 68 69 69 69 66 67 65 63 59 56 56 58 53 53 51 45 43
62 62 64 64 64 64 65 65 67 68 70 70 70 72 71 71 72 70 67 65 66 65 65 58 56 55 56 52 51 50 46 43 43
66 66 65 65 66 67 68 68 68 70 71 74 75 73 72 71 71 70 66 66 66 66 62 57 55 54 55 52 51 50 47 45 44
70 70 69 68 69 70 71 72 74 75 75 74 72 73 70 70 70 68 66 67 66 64 61 59 57 54 54 53 53 52 52 50 47
73 72 72 72 72 73 75 73 75 76 76 75 74 73 71 70 69 71 68 66 66 64 63 61 58 57 55 54 55 54 56 54 52
73 73 73 75 76 75 76 78 80 80 78 77 76 74 72 72 70 71 69 67 66 66 65 65 62 60 58 57 57 57 59 58 57
73 75 76 79 78 81 79 80 80 80 79 77 75 74 74 73 71 73 70 67 67 67 68 66 65 63 61 60 59 59 60 61 59
78 79 81 81 82 82 82 83 85 85 83 80 78 78 77 76 73 71 71 69 68 68 70 69 67 65 63 63 60 62 62 63 64
77 79 80 83 86 87 89 88 90 91 88 85 79 78 79 77 75 73 70 70 69 69 70 70 69 68 64 63 62 65 64 65 67
79 83 86 89 90 90 94 96 97 92 89 84 81 81 79 78 77 76 75 71 69 71 72 71 71 70 69 68 66 70 72 73 70
87 90 92 93 96 98 99 100 96 93 88 85 85 80 79 77 80 78 77 75 72 70 75 74 73 72 71 71 71 72 74 71 71
90 91 96 100 102 101 102 102 94 89 91 91 87 81 80 81 81 80 79 78 76 73 72 76 74 72 72 72 74 76 73 71 70
97 98 100 104 103 106 107 99 91 93 93 90 87 87 84 84 83 82 81 81 79 78 76 76 74 73 74 75 79 77 71 68 68
104 105 106 108 108 108 99 96 94 92 89 92 93 93 88 86 85 85 83 82 81 80 78 74 73 74 78 83 79 73 72 74 73
111 114 114 113 112 108 106 98 97 95 93 95 98 98 96 91 89 87 86 84 82 80 77 77 79 79 79 76 77 77 77 76 77

GFSFLT1_250_spd_063.txt.gz
Wind_Speed
32 34 35 36 39 42 44 46 47 48 48 50 53 54 55 57 59 60 58 59 62 63 62 63 64 64 65 63 65 65 66 63 61
35 36 38 41 43 45 47 47 48 50 52 54 56 57 58 59 60 60 62 63 65 64 66 65 66 66 65 63 63 63 58 57 58
39 41 43 44 47 47 50 52 54 56 57 58 58 59 61 62 63 64 65 66 68 70 68 67 66 64 61 60 56 55 57 58 57
43 45 47 48 49 52 54 57 58 59 61 61 61 63 65 64 66 67 68 71 70 68 66 66 64 62 58 56 53 53 55 53 53
46 47 50 53 54 56 57 59 59 60 61 62 64 65 67 68 70 71 70 70 67 64 64 63 63 61 57 53 52 51 52 49 48
49 52 55 57 59 61 63 64 64 63 64 65 67 69 70 71 69 71 69 68 65 67 64 62 62 60 57 53 51 53 49 48 45
54 57 59 61 63 65 66 68 68 68 68 69 71 70 71 73 70 70 70 69 69 68 66 64 61 59 55 52 52 52 51 47 44
60 62 64 66 68 70 71 69 70 70 70 72 71 72 74 74 74 73 74 75 73 69 66 64 60 59 55 55 53 54 53 48 46
65 67 70 72 74 74 71 72 71 73 74 73 74 75 76 79 79 80 78 76 72 69 67 63 59 59 56 56 54 54 53 51 48
68 70 72 73 76 76 74 74 75 76 77 77 78 79 79 82 84 84 79 76 72 69 65 64 61 61 59 58 57 56 55 53 50
71 73 75 77 79 78 80 80 80 79 79 81 82 82 84 85 86 85 85 77 70 70 66 64 62 60 62 60 59 59 58 55 53
76 76 79 79 79 80 81 82 80 79 83 84 85 87 88 87 91 89 81 74 71 69 67 66 64 63 64 60 60 61 60 58 56
74 79 77 76 77 79 81 79 80 82 85 88 89 92 92 94 91 83 78 76 74 69 67 66 65 65 64 63 62 62 62 62 58
76 73 74 76 78 80 80 82 86 88 90 93 94 96 96 96 88 83 80 81 75 70 69 68 68 67 65 65 66 64 64 63 61
77 75 76 79 80 81 85 90 92 95 95 97 100 101 102 99 91 85 82 78 75 73 72 71 70 70 68 67 68 68 66 64 61
76 80 82 84 87 89 91 94 97 99 102 104 105 107 104 95 90 86 77 74 76 76 76 74 73 71 70 69 70 68 68 65 63
80 83 85 89 93 97 98 101 103 106 109 112 112 111 102 95 94 86 84 81 79 79 78 79 76 74 73 72 73 71 68 67 67
85 87 91 95 99 102 105 107 108 112 114 117 119 115 106 98 94 92 91 89 87 85 82 80 79 77 74 74 73 71 69 69 69
93 93 97 101 104 107 109 111 114 117 117 118 114 110 104 101 99 99 96 96 91 86 83 79 78 82 82 77 74 74 73 69 72
100 104 105 106 108 111 116 117 119 117 120 113 107 104 106 107 108 106 108 108 107 102 99 93 91 88 84 83 82 77 71 73 73

GFSFLT1_250_spd_066.txt.gz
Wind_Speed
30 29 28 29 32 35 39 39 41 42 45 47 50 53 54 56 56 58 60 61 62 62 63 64 65 63 60 60 62 61 59 59 57
32 31 31 33 37 40 40 42 43 46 49 51 53 54 56 57 60 60 62 62 63 62 64 66 65 62 63 63 60 60 55 54 52
34 35 36 39 41 42 43 45 48 51 53 55 57 59 61 62 62 63 64 64 67 67 68 67 64 65 67 64 60 58 52 49 50
38 41 42 43 45 45 45 49 52 55 57 58 61 63 63 65 65 67 66 67 68 71 71 70 69 69 67 62 59 57 50 47 47
43 45 46 46 47 48 50 53 56 58 60 63 66 66 64 64 67 67 66 68 70 72 73 74 73 72 68 61 58 55 49 48 46
46 47 48 50 51 52 55 58 60 63 66 69 71 69 67 68 69 70 70 73 75 77 77 77 80 75 65 62 57 55 52 48 46
49 50 51 53 55 57 59 62 66 68 71 72 71 70 72 70 72 73 77 78 80 80 81 83 82 71 62 61 57 54 52 50 49
53 55 55 57 59 62 64 66 70 72 75 75 72 74 74 76 76 78 80 81 82 82 86 85 83 72 62 59 56 55 52 52 50
56 58 61 62 64 67 69 71 72 75 77 77 77 77 77 77 79 81 81 82 87 88 90 85 82 73 62 58 56 56 55 54 53
61 62 65 67 69 69 71 74 75 78 78 76 77 78 76 78 81 84 84 86 90 90 91 85 83 73 69 58 55 54 56 56 54
65 66 68 70 69 73 75 75 77 76 76 77 78 76 76 81 86 88 89 91 92 93 92 88 82 73 69 58 57 56 56 57 57
68 69 70 69 71 73 77 77 77 75 77 78 76 79 82 86 90 92 92 98 97 95 94 86 79 73 65 58 56 58 57 57 58
71 73 72 74 76 79 78 77 76 77 79 80 82 85 87 91 93 94 99 101 100 100 92 87 77 70 63 60 60 60 58 58 59
75 75 75 76 78 76 75 76 78 81 85 87 89 93 93 96 97 101 104 106 101 99 93 85 74 71 68 63 61 63 62 61 62
75 73 75 75 74 75 77 80 82 86 91 93 95 97 100 101 104 108 108 107 106 102 87 81 80 74 72 71 69 64 63 64 64
73 76 77 77 77 78 81 84 88 91 95 97 99 103 105 106 112 111 110 110 102 94 90 86 81 78 76 72 70 68 64 65 64
75 75 76 80 82 84 88 90 92 96 100 105 108 108 110 114 116 118 116 106 94 92 91 89 87 84 81 76 73 68 66 64 65
75 76 79 84 88 90 92 95 99 101 105 109 113 117 118 120 119 116 108 100 98 98 97 95 96 92 86 87 83 76 70 71 71
81 82 84 86 90 93 96 100 103 107 110 114 119 122 124 124 117 104 104 105 105 105 102 94 89 89 86 82 78 71 72 73 71
88 90 92 92 93 97 101 104 108 113 116 118 122 124 124 120 115 108 103 105 100 95 87 82 81 83 80 77 76 74 74 66 63

GFSFLT1_250_spd_069.txt.gz
Wind_Speed
38 32 29 27 28 29 31 34 36 39 40 41 43 44 46 49 55 58 58 57 59 60 59 59 63 67 67 68 73 75 63 58 55
30 30 30 29 30 32 35 39 41 41 44 45 47 49 51 55 58 59 61 61 64 62 61 62 68 71 71 74 77 74 62 55 53
31 30 31 32 33 37 40 42 44 45 47 49 50 54 57 60 63 63 63 64 66 66 66 71 73 75 75 77 76 73 64 56 53
32 34 34 36 37 40 43 45 47 50 52 54 55 58 61 63 65 65 66 67 69 70 72 75 77 77 78 79 78 75 68 58 52
36 37 38 39 41 44 45 48 51 53 56 58 60 63 65 66 68 71 71 72 75 74 76 78 79 81 81 81 80 81 70 58 52
39 40 42 43 45 47 49 52 55 56 60 63 66 67 68 70 73 72 74 76 75 76 78 79 82 83 84 85 85 80 69 58 53
41 42 44 46 48 51 53 56 58 60 63 66 69 72 73 74 74 75 77 77 75 76 79 82 84 85 87 85 83 79 69 60 55
46 47 48 50 53 55 58 61 63 65 66 69 70 73 74 74 73 75 77 76 77 79 82 84 85 89 89 86 85 75 67 62 54
50 52 54 55 58 60 62 64 67 68 68 71 71 72 74 73 75 75 76 78 81 85 85 88 89 92 91 87 83 69 67 62 52
54 56 59 60 62 64 67 69 70 69 71 72 73 76 75 75 75 78 80 82 86 88 90 91 94 95 93 86 77 64 64 58 51
59 62 63 64 65 67 69 70 71 73 73 72 76 74 75 77 79 82 84 87 89 91 93 95 98 97 92 83 70 65 65 56 52
64 65 66 65 67 70 71 72 72 73 73 76 74 75 76 80 83 87 90 93 93 96 97 102 101 97 92 78 70 65 62 56 56
65 66 66 68 71 72 71 72 73 73 77 78 79 78 80 84 88 92 94 96 100 102 104 106 106 101 88 75 68 64 61 58 56
68 70 71 72 73 72 75 75 75 79 81 78 80 83 87 90 93 95 99 102 106 109 112 112 109 97 82 76 72 69 66 62 61
72 74 75 74 75 77 77 78 77 78 81 83 86 89 92 93 97 100 103 108 110 114 116 115 101 89 82 79 79 79 74 69 63
75 76 75 76 76 76 77 76 78 81 85 87 91 93 95 98 101 104 110 113 116 119 118 104 97 93 90 90 86 79 75 71 66
76 75 75 74 73 75 78 80 82 86 91 93 95 96 98 102 106 112 115 118 121 117 110 104 100 98 95 88 83 78 75 74 70
78 77 76 76 76 79 82 85 89 92 95 100 103 105 104 107 111 116 121 123 119 112 107 102 97 90 84 79 72 71 67 65 68
77 78 78 76 79 82 87 92 96 99 101 104 107 110 113 113 114 120 121 116 110 108 101 93 89 84 80 75 66 66 59 63 60
85 84 86 86 87 89 92 96 99 101 103 107 109 113 117 120 124 125 118 115 108 103 98 90 80 73 72 69 65 70 54 70 65

GFSFLT1_250_spd_072.txt.gz
Wind_Speed
36 39 40 38 29 27 27 27 30 32 35 38 40 43 45 48 50 53 55 57 58 60 61 65 68 68 68 72 73 75 74 76 75
40 38 32 30 28 28 29 31 33 35 38 41 43 46 48 50 53 55 57 60 61 62 66 69 71 70 72 72 74 77 76 76 77
35 31 29 29 30 30 32 34 36 38 41 44 46 49 52 54 57 58 62 63 65 67 70 72 72 72 72 74 75 77 80 78 78
30 30 32 32 33 34 35 38 39 41 44 47 50 53 55 59 61 62 65 66 69 70 71 73 72 72 73 77 78 80 83 80 79
32 32 34 35 37 38 39 41 43 45 47 50 53 56 59 62 64 65 68 70 71 72 73 72 74 74 76 79 82 82 85 82 79
35 36 38 39 40 42 43 44 47 50 52 55 57 59 63 64 66 68 70 71 71 73 72 73 75 77 80 82 84 86 87 84 76
39 40 40 44 44 44 47 49 51 54 57 59 62 64 65 67 69 71 72 73 71 73 74 75 78 81 83 85 86 87 89 85 74
42 43 43 45 46 48 50 52 55 59 61 63 65 68 69 70 71 72 74 73 75 75 76 78 83 84 85 89 90 91 91 84 68
45 46 47 49 50 53 55 57 59 62 64 66 68 71 70 71 73 73 73 75 77 77 80 84 86 88 91 92 92 95 91 77 62
48 50 51 52 54 56 59 61 64 65 65 68 70 71 71 72 74 74 74 77 79 82 86 89 91 93 95 95 98 99 86 73 59
50 53 54 55 58 59 62 64 65 66 69 70 71 71 71 73 75 77 79 83 84 89 91 94 97 97 98 101 104 96 81 69 57
53 55 55 57 60 62 64 64 67 70 71 72 72 71 73 75 78 81 85 88 90 93 97 100 99 101 104 107 103 90 79 67 57
59 59 60 62 65 67 67 68 71 72 73 72 73 71 74 77 82 87 89 92 95 98 102 101 104 107 111 110 97 87 78 72 68
65 66 66 66 69 71 70 72 73 74 75 73 73 76 79 83 87 90 92 97 99 102 103 107 110 115 114 105 95 88 85 79 71
69 70 70 71 72 73 74 75 75 77 76 74 78 81 85 87 90 94 99 100 104 104 109 114 118 119 110 101 94 89 80 74 70
73 74 75 74 74 76 77 78 80 77 78 80 84 86 87 90 94 98 101 104 105 110 116 120 121 113 107 100 92 83 76 69 65
75 76 76 77 78 79 80 79 79 80 86 87 86 85 91 96 97 101 103 105 110 116 120 121 116 110 103 94 84 76 68 64 58
77 78 79 79 78 79 80 81 84 87 87 89 92 93 93 96 101 103 107 111 117 121 121 116 110 107 96 85 76 67 62 61 59
77 78 79 80 80 82 84 84 85 85 89 92 96 98 98 102 99 105 109 115 117 116 112 107 107 97 88 80 72 67 65 64 60
79 79 80 82 82 82 84 86 87 90 92 96 99 101 104 103 107 107 111 116 114 108 108 107 98 89 81 74 71 70 69 64 66

GFSFLT1_250_spd_075.txt.gz
Wind_Speed
31 31 30 32 35 39 32 27 26 29 28 31 32 35 38 40 43 46 49 52 55 56 60 61 63 66 69 69 70 72 72 72 74
35 31 30 35 37 32 27 27 29 31 32 35 35 38 41 44 47 49 52 55 57 60 62 65 67 69 69 70 72 73 75 75 78
34 32 32 34 31 28 28 31 32 35 36 37 40 41 45 47 51 53 57 58 61 62 65 67 69 69 72 70 72 76 77 79 79
30 28 30 29 30 31 32 34 35 39 40 41 43 45 49 51 55 58 59 61 63 65 67 69 70 70 72 72 75 77 81 82 79
27 29 29 31 32 34 36 37 39 42 43 45 48 49 53 56 58 60 62 63 66 68 69 69 69 70 73 74 78 81 83 82 81
31 33 34 35 36 38 40 41 43 45 46 48 51 53 57 59 61 63 65 66 68 70 71 72 71 72 75 78 81 84 85 83 85
34 35 37 39 40 42 43 44 47 49 50 52 54 56 60 61 63 66 68 69 71 72 71 70 73 76 79 82 85 86 85 86 90
36 38 40 41 42 43 44 46 49 51 53 55 57 59 61 63 65 67 70 72 73 72 72 73 77 79 83 87 88 87 88 92 94
39 41 41 43 44 46 48 50 53 54 57 58 60 62 64 67 68 70 72 74 74 75 75 78 80 83 88 89 89 91 95 99 93
43 44 45 45 46 48 51 54 55 56 58 60 62 65 67 70 72 73 75 75 75 77 79 82 84 88 90 92 93 96 102 102 90
47 48 48 50 49 51 52 54 56 58 61 63 66 68 70 73 74 75 76 76 78 80 83 86 89 90 93 94 97 103 108 97 88
51 50 50 50 54 55 57 60 61 62 65 67 68 71 72 75 76 77 76 80 82 85 88 89 91 95 96 97 103 110 104 93 84
53 53 53 55 58 61 63 64 66 67 69 70 71 73 75 76 77 78 81 83 86 90 90 92 96 97 98 103 107 110 100 90 85
59 58 58 61 65 66 68 69 70 71 72 73 75 76 75 75 79 83 84 89 91 89 93 97 98 100 105 109 113 108 96 90 84
60 63 65 66 67 70 72 72 73 73 75 76 77 77 76 81 84 85 90 92 92 94 98 101 103 106 110 114 115 105 96 86 75
65 69 71 71 73 74 74 73 76 78 78 76 78 79 83 86 88 89 90 93 96 98 102 102 107 110 115 115 114 101 92 77 67
72 73 75 75 75 75 76 78 78 78 80 80 80 81 85 89 90 90 92 95 98 102 103 108 111 115 118 117 105 97 84 72 60
76 77 76 75 77 79 78 77 77 78 81 82 84 86 86 85 87 94 97 100 103 105 108 111 115 119 117 111 101 92 78 68 58
75 77 80 78 77 76 77 78 80 82 85 87 90 87 85 85 89 94 99 103 105 108 111 114 119 117 114 102 96 83 73 66 60
77 77 77 77 77 79 81 82 83 84 84 85 86 88 92 96 99 101 103 102 107 110 114 117 114 112 101 97 85 76 70 65 62

GFSFLT1_250_spd_078.txt.gz
Wind_Speed
32 30 29 27 27 30 30 33 36 32 29 30 33 34 35 37 39 41 44 46 50 51 53 55 58 61 63 66 67 63 67 70 72
35 33 33 32 28 30 33 31 31 29 31 33 35 37 39 41 43 45 47 50 53 55 57 58 61 65 65 67 67 66 70 72 76
39 38 33 31 33 34 31 33 31 33 34 36 39 39 42 45 47 49 51 53 55 57 58 61 64 66 68 69 69 68 71 75 77
34 35 35 32 29 31 31 32 33 35 38 39 41 43 45 48 51 53 55 56 57 58 60 62 65 68 70 70 69 71 73 78 80
31 29 27 29 31 32 33 34 36 38 40 42 44 46 49 51 54 56 58 58 59 61 63 65 67 70 70 71 71 74 77 79 83
26 28 32 33 35 35 36 39 40 41 43 45 47 50 53 55 56 58 58 60 61 63 65 67 70 72 71 72 74 77 77 82 83
31 34 36 37 38 39 40 42 44 45 46 48 50 52 54 56 57 58 61 62 63 66 69 70 73 73 72 74 78 78 82 85 85
37 37 36 36 37 39 42 43 45 47 48 51 52 54 55 57 59 61 64 65 66 69 70 72 74 74 74 78 78 82 86 89 88
40 40 40 41 41 43 43 46 47 49 51 52 53 56 58 59 63 64 66 68 70 72 73 74 75 75 79 80 82 85 90 91 92
42 43 43 44 45 47 48 49 50 50 52 55 58 59 62 64 66 67 68 71 72 74 75 77 78 79 82 85 88 91 93 94 97
43 44 45 48 49 50 51 51 51 54 57 60 63 65 66 67 69 71 73 74 74 75 77 80 82 82 86 89 93 94 96 98 100
46 47 48 50 52 53 53 53 56 57 63 64 67 70 70 71 73 75 76 74 76 77 81 85 84 89 91 94 97 98 99 103 106
50 50 51 54 55 54 56 59 60 63 66 69 71 70 72 75 77 77 76 77 79 82 87 87 90 92 95 98 102 102 104 108 107
55 55 56 58 59 61 61 61 65 68 70 72 72 73 76 77 76 78 79 81 84 87 90 90 92 95 100 102 105 106 109 112 105
60 60 60 61 63 62 63 66 70 73 72 73 74 76 78 78 78 79 80 85 90 91 91 92 96 101 104 106 108 111 113 105 96
64 64 63 63 62 66 68 70 74 69 73 72 76 77 78 79 81 84 87 90 92 91 94 98 102 104 107 110 113 113 108 99 88
67 67 67 67 68 71 73 72 71 73 76 77 76 76 79 83 87 90 92 93 93 96 99 103 106 109 113 114 114 111 100 91 87
69 71 72 72 74 75 71 72 74 78 80 79 79 80 83 86 88 93 96 95 99 103 106 107 111 113 116 116 113 106 97 90 84
71 72 72 71 71 73 75 78 78 79 80 82 84 87 88 90 90 92 97 101 104 105 109 112 114 115 114 112 110 100 94 87 79
74 76 75 74 75 78 79 80 80 81 83 86 89 92 93 93 94 95 101 103 106 110 112 114 115 111 111 109 104 96 90 82 75

GFSFLT1_250_spd_081.txt.gz
Wind_Speed
33 28 29 32 35 31 26 27 27 32 31 32 31 33 34 37 38 41 43 46 47 50 52 53 53 55 56 59 62 65 67 68 69
35 37 37 36 31 28 31 29 30 32 32 33 33 36 38 40 41 43 45 49 51 53 54 54 55 56 59 61 65 66 67 70 70
37 40 42 42 39 37 33 32 30 32 32 34 35 37 40 42 44 46 49 51 53 55 55 56 57 59 61 63 66 68 69 72 70
36 37 37 36 37 36 32 30 33 33 34 36 37 40 43 45 48 50 52 53 56 55 55 57 59 61 64 66 69 70 72 74 72
34 33 32 35 33 29 29 33 33 34 37 39 41 44 46 48 51 52 54 56 55 56 58 60 62 64 66 67 70 73 75 74 76
33 33 33 32 29 30 35 37 36 38 39 41 44 46 48 50 52 53 53 55 56 59 60 62 65 66 68 69 73 76 75 77 80
36 33 34 31 33 37 40 40 39 39 41 43 44 46 47 49 50 53 55 57 58 61 64 66 68 69 70 72 75 77 78 81 84
37 36 36 36 39 42 41 41 41 42 44 45 48 49 50 52 54 57 58 60 62 64 66 70 72 72 73 76 80 81 83 85 89
39 39 40 41 43 42 43 44 46 48 49 50 51 52 53 56 58 61 63 64 65 68 71 72 73 74 77 82 84 85 87 90 94
44 44 45 46 46 46 47 48 49 52 53 54 55 55 57 60 63 65 68 67 69 73 73 74 75 77 82 84 86 88 92 95 98
45 45 46 46 47 49 49 50 52 53 54 55 57 60 62 65 68 69 69 71 73 75 76 76 79 82 85 87 88 92 95 99 102
46 46 46 48 49 49 50 51 53 55 57 60 61 62 66 69 70 72 72 74 77 77 78 79 82 85 88 89 93 96 101 103 105
50 49 50 50 51 53 53 56 57 59 61 63 62 67 70 71 74 74 76 80 80 81 81 83 85 89 91 93 98 100 101 107 109
54 54 53 54 55 57 58 60 61 64 64 62 67 70 71 76 74 78 83 83 82 83 83 86 90 92 94 98 100 103 105 110 110
57 57 57 58 60 61 63 64 65 66 66 67 71 72 75 76 78 82 84 82 83 86 88 90 92 95 98 101 104 107 108 112 109
62 62 62 63 64 66 67 68 70 70 70 71 71 73 77 78 81 82 83 85 87 90 92 94 96 99 102 106 108 109 112 107 108
65 65 67 67 69 70 70 72 71 72 70 69 73 74 79 80 80 85 88 90 91 94 96 97 100 102 106 110 112 115 108 106 105
66 68 70 71 73 74 73 69 65 68 73 76 77 77 78 80 83 88 92 95 96 99 100 103 105 109 111 113 115 114 109 105 103
66 66 67 68 68 66 65 68 72 76 77 77 80 81 81 82 85 90 95 97 101 104 105 108 110 113 113 116 114 111 103 102 96
69 70 71 71 71 71 73 77 80 81 83 83 83 84 84 87 90 91 96 99 104 109 110 112 113 115 116 117 113 105 103 98 88

GFSFLT1_250_spd_084.txt.gz
Wind_Speed
38 38 35 34 32 28 31 34 32 29 28 31 31 33 34 37 38 39 41 43 45 48 50 52 53 54 53 54 56 59 61 63 67
37 38 35 34 34 36 35 34 31 35 33 31 32 33 36 37 37 40 43 46 48 50 53 54 53 54 55 57 59 61 63 64 69
38 38 37 38 39 42 42 42 44 42 34 31 34 35 35 37 40 43 45 48 49 51 52 54 55 55 58 59 61 62 64 67 71
39 36 37 38 39 40 41 39 39 32 31 34 35 36 37 40 41 44 45 48 50 51 53 54 56 59 59 62 64 65 67 70 74
37 36 37 39 39 37 37 37 32 30 35 38 38 38 39 42 44 45 47 50 52 51 54 57 59 61 64 65 66 67 70 74 77
37 37 37 37 37 37 37 33 31 35 39 40 40 40 43 44 47 49 51 53 54 55 58 61 61 63 66 68 68 70 74 77 79
39 38 38 38 38 38 36 35 35 37 40 40 42 43 46 49 52 53 53 53 55 58 61 63 64 67 69 70 71 74 77 80 82
41 40 39 39 39 39 37 39 40 43 44 44 45 48 50 52 55 55 55 56 59 61 64 66 68 71 73 73 74 77 80 83 83
43 43 43 41 41 41 42 44 45 47 49 50 51 51 53 54 55 57 58 57 63 64 69 70 71 74 75 76 78 80 83 85 87
43 43 43 44 43 45 47 48 49 50 50 52 52 53 54 56 58 60 58 63 66 68 71 74 76 78 77 78 81 83 85 86 91
46 45 46 46 46 48 49 51 51 52 52 52 53 54 56 58 60 60 64 66 68 72 74 77 79 79 81 83 84 86 87 89 96
48 49 48 48 49 49 50 51 52 52 53 53 56 58 59 61 62 65 67 69 73 73 77 79 79 80 82 84 86 89 92 96 99
51 52 52 52 52 52 53 53 54 55 55 57 59 61 64 66 67 69 72 72 73 78 80 81 81 82 84 87 90 93 97 102 104
55 55 55 56 55 56 57 57 57 58 59 61 64 65 67 71 70 73 71 74 76 78 81 84 85 86 87 90 93 97 101 105 109
60 59 58 58 59 59 59 60 61 63 64 65 68 69 71 72 72 73 76 78 78 82 86 86 86 90 92 93 95 100 106 109 112
59 59 61 60 62 62 62 63 65 67 68 69 70 72 69 67 71 78 82 84 86 85 87 86 89 92 96 98 101 105 108 111 117
59 58 61 64 65 65 66 67 68 70 69 63 61 61 67 72 76 81 85 85 87 88 89 89 93 98 98 102 106 107 111 114 118
61 61 61 61 60 62 62 63 65 64 64 66 67 70 72 78 82 84 86 87 89 91 91 96 98 104 104 107 109 110 115 120 123
66 65 66 66 64 66 68 68 68 70 70 73 77 79 81 82 82 83 85 88 93 95 96 102 103 107 108 110 111 117 121 121 114
76 74 73 72 70 70 71 71 74 78 81 84 86 84 84 85 85 84 88 93 97 101 104 106 109 109 110 112 116 120 125 117 107

GFSFLT1_250_spd_087.txt.gz
Wind_Speed
35 36 36 38 38 36 37 35 32 33 35 34 30 36 34 35 37 37 37 40 42 44 46 47 49 52 52 53 55 56 58 58 59
40 37 36 37 38 37 35 37 38 38 39 41 44 46 33 36 37 37 38 40 43 46 47 50 52 54 55 56 56 57 59 60 62
39 39 38 37 37 37 38 41 43 46 46 46 43 33 36 37 38 37 39 44 46 48 51 52 52 53 56 57 59 60 62 63 65
39 38 39 38 38 36 38 40 40 41 42 39 33 35 37 40 40 40 44 47 49 51 53 51 52 55 57 60 61 63 64 65 69
39 38 38 38 37 37 39 39 38 39 39 36 36 38 41 41 43 45 48 50 51 52 52 53 54 57 60 63 64 65 68 69 73
39 38 38 38 37 38 40 39 39 38 38 36 39 41 43 45 46 48 50 52 53 53 53 55 56 59 62 65 67 69 70 73 75
38 38 40 39 40 40 40 40 40 41 38 40 43 44 47 48 50 52 53 54 54 55 57 54 59 62 65 68 71 72 74 75 77
37 37 41 41 41 41 41 41 41 43 41 44 47 48 48 50 52 53 53 55 56 58 56 58 62 65 68 72 74 75 76 77 80
38 38 40 40 42 43 44 43 42 43 45 48 49 50 53 54 54 53 54 57 58 59 62 63 66 68 72 76 77 79 79 81 82
40 40 40 40 41 43 43 42 43 45 48 51 53 54 54 54 54 55 56 59 61 64 67 67 70 73 76 79 80 81 83 84 86
44 44 44 45 44 44 45 46 46 47 48 51 54 53 54 55 56 58 60 63 66 69 69 69 72 76 82 81 83 87 86 87 89
50 49 49 49 48 48 47 49 50 50 50 52 54 55 56 57 59 60 63 67 71 72 69 70 75 81 82 84 88 89 92 92 93
53 54 52 53 53 52 51 52 53 53 54 56 57 59 60 61 63 64 66 69 70 68 72 76 79 83 84 88 91 93 93 96 97
55 56 56 57 57 56 56 56 56 57 58 59 60 61 63 62 67 67 66 64 64 69 76 82 83 84 87 89 92 95 96 97 102
60 58 59 59 59 59 58 59 60 60 61 62 63 64 65 65 64 64 66 65 68 74 79 80 82 85 89 92 94 96 98 101 104
65 61 55 54 54 56 59 59 61 63 64 65 65 65 62 63 66 67 69 72 78 81 82 82 84 86 88 93 96 98 102 105 107
68 66 61 59 59 58 58 58 59 60 63 62 58 61 69 71 67 70 74 81 85 85 84 85 87 90 92 95 98 102 106 107 110
68 68 68 67 67 65 64 64 65 65 68 68 68 70 71 71 73 77 83 88 88 87 88 89 90 93 97 99 102 106 108 110 115
68 70 70 70 70 68 67 66 68 69 75 75 77 75 73 75 80 85 89 90 91 90 92 94 94 95 101 106 107 108 112 116 114
67 66 67 70 73 74 76 77 78 77 79 80 81 82 83 85 87 90 93 93 92 95 98 100 100 102 104 108 110 114 118 116 116

GFSFLT1_250_spd_090.txt.gz
Wind_Speed
37 37 38 37 36 35 37 37 38 39 34 34 35 39 44 48 48 37 39 41 42 42 44 48 49 52 50 48 51 52 53 56 58
38 37 37 35 35 35 36 38 37 37 38 39 43 46 45 43 39 38 40 43 44 45 48 50 52 53 50 51 52 54 56 58 61
41 41 38 37 36 36 37 38 39 38 38 40 42 42 40 38 38 39 42 45 47 48 50 53 55 54 52 53 52 56 58 61 64
40 40 39 38 37 37 37 39 39 38 39 40 40 38 39 38 39 41 45 46 49 51 53 54 56 56 55 54 55 59 61 64 68
39 38 39 38 37 36 37 38 38 39 40 40 40 39 38 38 41 43 46 50 52 53 54 54 57 57 54 55 59 62 64 68 71
38 37 37 38 36 37 38 38 39 40 40 41 41 41 38 41 45 47 50 51 54 54 54 56 59 57 59 61 63 65 67 72 74
35 37 36 37 35 37 39 39 40 41 41 41 41 42 41 44 47 48 49 54 55 55 57 59 61 60 64 66 66 68 71 75 75
35 35 35 35 35 36 37 38 40 42 42 43 43 42 44 46 49 50 53 55 55 57 58 61 63 66 67 69 68 73 77 78 79
39 40 39 36 35 36 37 37 39 41 42 43 42 43 46 49 51 52 54 53 56 58 61 64 66 67 67 68 72 78 80 80 82
44 43 42 42 41 41 41 40 40 41 42 44 45 45 46 49 50 52 53 56 58 60 63 67 69 68 68 71 76 82 82 84 85
47 46 46 47 46 45 45 45 45 46 46 47 47 48 49 51 53 55 57 59 59 62 64 66 64 67 70 77 84 86 85 85 86
51 49 48 50 51 50 50 50 50 50 51 51 51 51 53 54 57 58 59 61 62 63 65 64 64 68 75 84 88 86 87 89 89
54 52 52 53 53 53 52 53 53 54 55 55 56 57 58 59 60 61 61 61 63 66 65 68 69 73 80 85 86 88 90 91 93
59 57 56 57 58 56 56 57 57 58 57 58 59 60 62 62 63 63 62 62 67 65 68 69 74 79 85 87 89 89 92 94 98
63 62 63 63 61 62 60 58 56 55 54 56 59 62 63 62 62 62 66 69 67 68 69 73 77 82 86 89 91 92 96 99 102
64 65 66 68 67 65 64 62 59 57 61 63 60 63 63 62 64 68 68 68 72 74 75 78 84 87 88 92 93 96 98 100 102
70 72 70 71 67 66 64 64 60 64 63 64 66 65 67 66 69 71 74 74 76 79 82 86 88 90 93 95 98 97 103 103 104
74 68 63 63 63 61 62 64 66 67 72 70 68 65 71 74 76 77 79 80 80 83 86 88 91 92 96 98 102 101 103 107 112
70 73 74 72 70 69 68 69 68 69 72 71 69 71 73 74 75 81 81 81 84 88 91 91 94 96 98 103 104 104 108 112 114
78 80 77 75 73 64 63 64 64 66 69 73 77 79 81 82 81 82 89 89 89 91 93 95 97 99 102 104 106 110 114 116 118

GFSFLT1_250_spd_093.txt.gz
Wind_Speed
33 34 35 35 37 35 36 34 35 34 35 35 36 36 38 41 42 41 39 40 39 41 44 47 49 53 53 53 52 51 49 51 54
35 35 39 37 38 37 37 35 35 36 35 36 37 35 38 40 39 38 39 39 40 42 46 49 51 55 54 55 53 51 52 55 58
34 35 36 37 37 38 37 37 36 36 35 37 37 36 38 39 38 39 39 41 42 45 47 51 55 56 55 55 55 53 56 59 58
34 34 36 36 37 36 38 38 37 36 36 36 36 37 38 38 40 41 38 41 44 48 49 52 56 54 55 56 56 57 59 59 61
36 36 35 35 36 36 37 37 37 36 37 35 35 37 38 39 39 40 40 43 47 48 50 54 56 56 57 57 58 60 59 61 64
37 36 35 35 34 36 37 37 37 37 38 37 38 38 39 41 40 40 41 44 47 50 53 57 56 58 57 58 59 60 61 62 67
37 36 35 33 32 33 35 36 36 37 37 37 38 38 39 40 40 41 43 45 49 51 54 55 58 59 59 60 63 63 66 67 72
38 38 38 35 34 34 34 34 35 36 37 37 37 37 37 39 41 43 45 47 48 51 54 57 60 60 62 65 65 65 69 69 75
42 40 42 41 39 39 39 38 39 40 40 40 39 40 41 42 42 44 47 49 51 54 57 60 60 62 64 66 66 68 71 74 79
47 46 44 45 45 44 43 43 43 43 44 44 45 46 46 48 49 49 51 53 55 58 61 63 64 63 67 67 67 71 74 77 84
51 51 50 49 48 46 46 46 46 47 47 48 50 50 50 52 53 54 56 57 58 61 62 65 65 66 68 70 74 75 77 83 86
54 52 51 51 51 49 50 48 48 51 50 51 51 51 53 54 56 57 59 59 59 61 63 66 66 64 67 73 74 79 83 84 87
53 53 54 51 54 54 55 53 52 52 55 55 56 57 58 57 56 58 61 65 64 65 63 64 68 68 71 76 80 83 85 90 92
54 56 57 57 56 57 58 57 55 55 55 58 61 60 62 61 62 62 63 62 64 63 63 67 71 74 79 79 81 87 90 92 96
59 60 60 59 61 60 62 61 60 60 61 62 62 62 60 64 62 65 63 63 62 62 68 70 73 76 79 81 88 91 93 96 98
54 57 58 56 60 62 60 60 64 67 64 61 61 62 64 64 65 67 69 64 66 66 71 73 76 80 85 88 91 93 94 96 99
51 58 62 63 64 66 68 69 69 72 73 73 75 73 69 65 68 69 64 66 70 73 77 81 84 86 89 93 94 95 98 99 101
72 73 75 74 77 78 77 75 72 75 71 68 67 67 70 70 65 68 71 72 74 77 81 86 90 93 92 94 96 98 100 101 103
89 92 90 88 88 85 80 78 81 77 72 71 68 63 62 65 70 75 77 77 79 83 84 90 94 93 95 98 101 102 101 103 110
90 88 92 90 84 79 81 83 79 78 77 75 74 73 69 75 77 80 84 82 85 85 91 94 94 96 99 103 103 104 108 113 113

GFSFLT1_250_spd_096.txt.gz
Wind_Speed
34 34 34 33 32 32 34 33 35 35 35 34 33 31 32 30 30 34 33 34 36 36 37 38 41 43 45 48 51 50 50 50 51
33 35 35 36 36 34 34 34 35 34 35 35 34 32 34 31 30 33 34 34 36 36 39 40 43 44 47 49 51 51 50 52 53
35 35 36 35 35 33 34 33 33 34 35 34 34 33 33 32 32 33 34 35 35 36 39 41 44 47 49 52 52 52 52 55 56
36 36 36 35 33 34 33 31 32 33 34 34 34 34 34 34 34 34 35 37 37 37 39 42 46 48 50 52 53 53 55 57 58
36 36 36 34 33 34 31 30 31 32 33 35 34 34 34 34 35 35 36 37 37 39 41 44 47 49 50 53 55 55 57 60 62
37 36 35 34 34 32 32 29 29 30 31 32 33 32 33 33 33 34 35 37 39 41 44 47 49 51 54 56 56 57 59 62 63
42 38 36 36 36 34 34 34 31 30 31 30 29 30 31 33 34 36 39 41 44 46 48 51 52 53 57 58 58 60 62 62 66
45 40 39 38 37 36 37 37 36 36 34 34 36 37 37 37 38 41 43 44 47 49 52 54 56 57 58 60 59 59 59 63 69
44 42 43 41 39 40 41 40 40 40 39 39 41 41 42 41 44 45 46 48 51 53 55 56 57 58 60 59 59 61 63 68 71
46 46 46 45 43 43 45 44 44 44 42 42 43 42 44 45 46 47 49 53 55 56 58 60 62 61 60 59 60 61 67 71 74
46 49 49 48 47 44 46 47 47 45 46 45 46 48 48 47 48 49 54 56 58 59 60 61 64 60 59 58 63 66 68 74 81
51 50 47 47 47 47 47 49 50 47 49 48 51 51 50 49 50 53 56 57 58 59 61 63 62 62 58 63 66 69 73 81 87
52 49 49 46 43 46 46 46 47 50 51 51 54 55 55 54 54 57 56 56 62 61 60 61 62 61 65 67 69 73 78 85 91
54 51 54 51 50 52 53 55 55 51 52 55 57 59 61 61 63 62 61 66 65 63 61 66 67 67 67 71 73 77 86 92 93
47 53 55 55 54 56 58 60 56 54 49 53 56 58 59 63 66 67 67 68 65 63 65 69 67 70 71 76 78 84 92 92 91
45 45 49 53 57 60 58 56 61 60 61 61 61 64 69 73 71 74 64 63 65 69 67 71 70 71 78 81 83 93 91 92 94
73 70 65 75 72 75 66 62 62 66 60 63 67 76 78 75 72 72 67 64 69 72 76 72 76 82 81 81 100 93 91 94 96
74 77 76 73 74 76 79 81 76 77 83 82 82 75 73 72 75 76 73 76 80 78 74 77 86 87 89 99 94 94 93 95 99
76 76 79 78 85 90 90 88 92 89 88 83 76 70 72 78 80 79 81 86 82 79 80 91 95 92 99 101 95 97 97 98 104
77 79 83 87 84 87 89 82 88 87 86 87 85 83 81 88 91 92 85 85 83 86 86 99 103 105 102 94 100 102 100 103 107

GFSFLT1_250_spd_099.txt.gz
Wind_Speed
31 29 29 30 32 32 33 34 34 33 33 33 32 32 31 30 31 30 29 29 30 31 30 31 34 35 36 39 43 44 47 47 47
32 28 29 30 32 33 33 33 32 31 32 31 30 30 31 30 30 31 31 31 31 33 33 34 35 37 38 41 43 45 48 49 48
36 33 32 33 33 34 33 33 31 29 27 28 27 29 30 30 30 31 31 32 32 33 33 34 36 37 41 43 46 48 51 51 50
37 36 34 32 33 33 33 32 29 25 26 26 25 27 27 28 28 27 28 28 30 33 35 38 40 43 45 46 49 51 52 54 51
37 36 33 33 33 32 31 30 28 25 26 25 24 24 25 25 26 28 29 30 33 37 40 42 44 46 47 48 50 51 54 54 53
37 38 39 37 34 32 31 30 29 28 28 29 28 28 26 29 30 31 33 35 38 41 42 44 46 48 49 53 52 56 54 53 55
44 45 45 42 41 37 34 32 31 31 32 31 32 32 31 33 35 36 37 38 40 42 43 45 49 50 52 53 56 57 55 55 54
45 45 45 43 41 40 36 35 34 35 33 32 33 34 35 35 37 36 41 43 43 44 47 50 52 52 52 57 57 56 55 53 57
47 46 48 45 43 39 37 37 39 38 37 36 38 37 37 37 39 44 45 43 44 46 51 52 53 54 57 59 56 56 59 61 62
51 49 50 50 49 48 42 40 43 41 38 39 38 39 41 42 42 45 46 47 47 50 54 51 57 61 59 55 54 59 63 63 66
36 45 51 48 49 44 44 44 44 43 45 42 42 43 41 43 46 46 49 50 50 55 55 56 63 62 60 58 59 65 65 64 70
40 43 43 47 50 49 52 50 46 45 44 42 41 42 43 45 46 49 49 55 55 56 60 63 64 61 60 61 66 66 63 69 73
45 46 45 46 50 52 55 56 51 50 52 46 44 47 47 44 46 50 52 53 55 61 70 65 66 62 66 69 67 64 64 75 79
42 43 44 45 44 47 48 51 54 53 50 52 55 57 56 52 55 49 55 57 61 66 67 65 67 69 73 71 65 67 71 82 92
44 41 44 49 46 46 48 52 54 50 51 55 53 53 51 51 54 52 56 62 71 69 64 66 74 80 74 73 70 75 78 90 98
54 54 53 47 40 48 55 62 66 65 59 62 61 58 58 56 57 63 71 75 74 66 72 79 76 76 75 76 76 80 86 94 99
66 67 57 59 62 66 66 75 81 80 75 72 66 70 61 66 67 72 77 79 79 74 75 74 82 78 78 75 79 87 92 96 98
62 65 69 68 74 72 80 82 82 84 82 78 75 76 74 74 77 78 79 77 73 69 70 81 79 80 84 80 89 89 98 99 99
67 73 78 81 74 75 77 78 85 85 83 82 80 80 79 81 82 79 75 73 71 76 81 88 88 88 86 88 94 95 101 102 101
64 50 56 57 63 70 74 80 87 84 84 86 87 86 81 83 82 80 81 78 85 86 95 91 93 94 96 96 100 100 102 102 101

GFSFLT1_250_spd_102.txt.gz
Wind_Speed
30 31 29 28 27 26 28 29 31 32 31 32 32 28 26 25 25 26 27 27 27 29 28 29 29 32 34 36 39 40 42 45 47
30 30 30 29 29 27 28 29 31 31 32 32 26 26 24 23 23 24 24 25 25 26 27 30 33 36 38 39 42 44 47 46 51
33 32 32 32 31 30 28 30 30 29 30 27 22 23 23 23 23 23 23 24 25 29 32 34 37 39 40 42 43 44 45 48 52
32 31 32 34 31 30 28 30 29 27 26 24 23 24 25 25 24 24 26 28 30 32 34 36 37 39 42 45 47 45 52 53 53
37 33 34 32 31 30 30 29 29 26 24 24 24 25 27 27 28 28 30 32 34 35 38 40 39 41 47 48 48 52 56 54 53
38 38 37 37 35 37 35 33 33 31 29 27 27 28 29 29 29 31 33 34 34 37 40 40 41 45 50 47 50 59 54 50 50
42 38 40 42 42 43 40 36 35 36 35 32 31 30 29 30 33 34 35 35 37 40 40 41 43 46 51 51 56 58 53 51 55
41 40 44 43 42 43 43 40 37 36 34 35 34 34 32 34 37 36 38 39 40 40 42 44 46 50 50 57 59 56 56 59 61
47 48 44 42 42 45 44 44 42 39 35 35 35 36 33 35 38 39 39 40 42 42 44 44 49 54 53 58 59 56 58 64 62
48 48 50 50 48 48 43 49 49 47 46 44 41 40 41 43 40 42 39 42 42 42 44 46 51 50 53 60 58 60 64 63 62
53 50 49 50 48 41 46 51 49 48 46 45 43 46 45 45 44 44 43 41 42 42 46 51 50 55 58 59 61 66 63 63 64
51 51 44 45 46 52 48 44 45 46 49 50 49 51 47 47 40 42 45 47 50 51 56 53 55 54 59 64 60 67 64 66 69
56 52 54 53 48 43 42 37 40 43 45 47 48 49 49 48 48 50 53 55 50 53 56 59 56 62 68 63 63 68 69 71 71
55 54 47 45 45 46 39 39 42 42 44 46 44 45 50 52 46 46 49 51 53 52 55 58 63 68 62 54 62 74 74 74 76
51 51 49 47 47 45 43 47 46 50 51 51 46 47 50 50 53 56 59 58 57 57 59 60 67 64 54 65 69 81 82 83 82
53 49 48 52 52 55 58 59 56 54 56 53 57 65 66 64 66 75 75 79 72 63 65 67 66 60 66 78 86 85 85 85 88
58 58 57 60 61 61 63 64 58 59 63 72 71 71 74 79 77 77 80 77 71 70 72 71 68 65 79 89 89 87 87 89 93
66 68 69 67 65 68 70 70 70 76 82 81 79 83 88 89 84 77 74 74 73 74 70 74 71 77 91 95 92 88 90 93 98
75 74 76 74 71 68 65 79 70 74 76 78 76 73 82 83 78 78 70 72 75 71 74 73 86 96 100 99 96 95 101 100 105
65 66 72 74 71 68 57 56 53 55 64 65 73 72 76 76 67 70 80 73 74 82 88 97 103 105 104 100 100 99 104 107 112

GFSFLT1_250_spd_105.txt.gz
Wind_Speed
22 25 27 27 27 26 26 26 25 26 27 29 28 29 28 24 21 20 21 22 23 24 26 30 31 34 34 35 38 44 45 44 50
28 27 28 27 27 29 28 28 30 27 28 28 27 27 24 21 21 22 22 23 24 28 30 32 33 34 37 36 40 41 45 51 50
36 32 31 28 27 30 29 29 28 27 27 26 25 24 22 22 22 23 24 24 26 29 31 31 33 36 36 36 41 47 45 53 49
40 36 35 30 29 27 27 28 28 26 26 25 24 23 23 23 25 26 27 28 28 31 32 32 37 37 40 41 44 46 48 53 47
41 39 36 35 34 32 30 29 30 29 29 28 29 27 26 27 27 29 28 29 31 33 34 35 37 38 40 41 44 46 47 52 51
40 39 38 38 36 35 34 37 38 37 34 32 32 33 32 30 29 29 29 32 32 33 35 35 37 38 40 39 45 48 49 52 56
42 39 40 39 38 35 36 36 39 37 37 36 33 35 34 33 32 33 35 35 35 35 38 38 38 39 40 42 48 52 49 55 57
45 44 44 41 38 37 34 35 39 40 41 39 38 37 37 35 34 35 36 37 41 42 40 38 37 42 43 46 51 54 53 57 56
50 50 49 45 40 44 44 36 40 44 44 45 44 42 43 45 45 40 41 43 43 43 40 39 42 47 46 51 57 53 56 59 60
52 52 48 42 42 47 45 44 45 45 46 52 51 48 45 45 42 43 44 44 42 40 42 43 46 49 51 55 54 55 62 51 60
56 55 53 46 49 50 50 47 47 49 54 53 47 46 45 45 47 44 46 42 42 41 46 52 54 55 57 56 53 55 60 55 68
55 42 49 51 52 52 49 50 52 51 52 45 42 44 46 47 45 44 42 44 44 46 50 52 55 53 56 59 54 54 46 58 65
52 47 44 50 51 56 57 53 50 46 45 44 40 40 40 40 41 44 43 42 47 45 46 57 60 67 68 65 59 59 61 58 71
54 53 55 58 60 58 56 54 52 48 50 50 43 42 45 48 52 48 45 44 48 53 56 57 70 72 72 62 61 62 64 66 76
53 54 57 60 59 56 56 50 52 52 50 48 51 54 56 58 53 56 51 64 69 60 63 74 76 66 71 69 67 66 66 68 81
59 57 63 60 59 49 52 50 52 52 55 57 59 62 64 63 60 59 71 78 74 72 72 68 64 63 62 63 67 62 71 81 90
61 60 59 60 58 54 54 51 54 58 60 61 62 66 69 67 67 69 76 79 78 74 80 70 56 70 69 61 66 74 81 92 95
56 55 57 60 64 63 61 61 60 63 65 68 67 67 66 66 72 71 70 67 72 83 81 77 69 72 74 79 85 88 91 100 98
66 61 59 64 66 65 66 66 72 72 72 73 71 71 71 67 75 80 68 65 94 83 83 78 73 77 81 83 88 90 100 105 106
61 66 68 70 71 73 74 73 73 76 77 77 78 75 77 78 82 88 93 84 90 86 85 87 75 83 81 89 94 99 108 110 109

GFSFLT1_250_spd_108.txt.gz
Wind_Speed
31 27 23 21 23 23 24 25 26 26 27 27 26 26 24 24 21 18 18 20 22 24 24 26 26 27 31 32 34 34 39 41 40
32 30 27 23 23 24 26 28 27 27 27 27 25 23 23 22 20 21 22 24 25 26 26 29 27 30 33 34 35 35 39 44 45
35 33 31 31 29 26 25 27 27 25 25 24 25 22 23 22 21 22 24 26 27 28 28 30 30 32 34 37 36 38 40 45 46
37 35 35 35 33 32 29 28 27 25 24 26 26 26 24 25 26 27 27 29 28 30 31 31 32 35 37 38 38 41 38 43 49
40 38 36 36 36 36 33 32 31 29 31 31 30 30 29 28 30 32 31 30 31 33 33 33 35 39 40 41 40 41 41 46 51
44 41 39 38 37 37 36 36 33 30 33 32 28 32 34 32 32 33 33 33 34 36 33 35 39 40 41 44 44 44 45 50 50
47 44 40 38 37 36 38 35 36 34 33 34 31 37 39 39 37 36 35 33 37 37 37 40 38 39 41 42 46 51 51 54 52
50 47 43 40 39 40 41 38 38 37 33 34 34 40 42 45 42 40 42 41 41 39 39 39 38 38 39 44 52 53 53 52 54
55 50 47 44 44 46 48 45 38 42 42 39 39 42 47 47 47 48 45 42 41 40 41 36 39 40 42 44 49 57 61 62 56
57 54 51 53 50 49 52 49 49 41 43 46 44 48 48 48 48 47 44 41 40 41 39 38 38 41 43 41 52 63 61 59 60
62 60 59 58 55 55 52 54 50 47 46 47 46 47 47 46 48 48 45 45 44 42 37 38 40 39 43 48 54 67 61 62 59
61 63 61 60 55 50 47 51 51 49 47 47 46 48 48 50 49 43 42 43 37 40 43 41 36 38 47 55 59 67 57 62 60
61 63 63 59 57 48 53 46 52 55 53 52 54 50 50 50 49 48 40 41 41 45 46 45 50 54 63 67 63 73 57 56 57
59 59 64 62 49 52 56 56 55 52 55 55 53 50 49 51 50 51 50 50 50 53 52 54 56 64 57 60 67 73 51 65 68
62 57 56 55 55 51 58 57 58 55 54 56 56 51 51 54 55 54 55 57 59 58 60 61 66 71 70 66 70 74 55 63 67
65 68 66 63 63 64 58 56 60 62 57 57 55 53 55 56 57 60 62 65 64 65 67 76 79 75 71 71 70 70 72 60 65
72 65 69 70 64 63 63 59 61 64 60 61 58 56 56 58 62 64 64 67 73 71 79 80 73 73 61 73 73 81 73 65 72
64 65 65 64 67 67 66 59 61 62 60 61 61 59 61 62 68 69 72 73 71 76 76 70 75 72 74 74 75 76 77 76 76
58 60 58 59 61 65 64 57 62 63 64 64 65 68 69 71 76 79 76 78 80 87 81 77 72 69 76 74 80 85 82 76 81
59 64 64 68 64 61 61 66 63 65 68 69 69 72 73 77 75 80 85 88 85 76 68 77 71 75 76 78 80 85 82 87 84

GFSFLT1_250_spd_111.txt.gz
Wind_Speed
32 29 28 29 25 21 20 21 23 24 24 24 24 23 24 23 20 21 20 21 23 23 25 26 26 27 28 34 35 39 35 37 35
33 33 30 29 27 24 20 21 27 25 24 24 23 23 23 23 22 21 22 25 27 28 29 29 28 28 29 35 36 40 35 38 38
34 32 32 30 29 30 28 26 27 28 26 23 21 21 23 22 26 26 26 28 31 32 31 32 31 31 31 35 36 38 38 40 42
38 35 35 34 31 31 30 31 29 29 29 27 26 27 27 26 25 27 29 30 32 32 32 33 34 29 33 37 36 36 39 38 45
43 39 39 38 35 33 32 34 32 34 32 30 30 29 27 25 29 31 31 33 32 33 35 33 35 35 38 38 35 37 38 41 54
47 43 42 41 37 35 34 35 35 37 34 32 32 34 31 28 32 36 36 35 34 34 35 40 37 37 37 34 36 35 38 45 57
49 47 45 43 40 38 37 36 37 38 35 33 32 33 31 31 35 39 41 38 38 41 42 42 38 39 34 33 34 38 38 47 58
53 51 48 47 46 42 40 39 40 41 40 38 35 36 37 36 39 43 41 39 40 44 42 38 39 38 36 35 34 36 42 48 55
56 52 51 51 49 48 45 45 44 45 46 43 43 42 41 38 45 42 41 43 43 48 44 40 42 40 36 36 34 36 43 51 57
58 55 55 52 53 51 49 50 51 50 53 50 46 45 41 43 43 42 42 45 47 47 43 40 38 35 38 39 35 45 47 58 59
57 57 57 55 57 54 55 56 56 55 54 50 51 46 47 43 42 44 48 52 49 48 46 40 33 38 38 40 42 49 65 63 59
59 59 60 61 58 60 59 60 58 54 56 53 47 47 50 47 49 49 54 50 49 48 46 43 40 42 44 45 50 58 61 62 58
63 63 60 58 60 56 57 59 63 56 57 58 64 61 55 50 50 53 53 53 51 49 50 51 48 47 48 50 59 64 63 66 59
59 59 61 59 59 55 57 62 62 59 61 64 61 60 52 50 52 54 57 56 53 52 53 52 51 51 51 57 58 68 53 69 60
55 61 64 60 58 57 60 56 58 60 69 51 60 58 54 53 57 57 57 53 55 57 53 53 55 54 58 62 63 69 65 65 59
52 54 52 54 60 62 61 69 59 62 63 67 66 62 58 56 63 54 54 59 59 56 57 60 60 61 66 65 68 79 71 62 65
58 58 55 54 66 69 71 66 72 77 71 71 74 70 62 63 63 59 61 62 61 60 58 62 65 68 68 72 82 75 66 62 64
57 57 56 62 67 73 73 73 72 77 79 74 70 65 60 63 64 63 64 64 64 65 69 66 70 71 76 81 78 76 68 68 72
66 65 66 71 72 74 73 73 76 68 65 65 66 69 65 64 70 72 68 70 71 72 70 72 74 77 81 84 78 75 75 73 73
67 68 71 75 68 67 69 69 67 65 63 65 70 69 68 69 69 71 71 72 74 74 74 73 83 86 84 79 74 79 85 76 78

GFSFLT1_250_spd_114.txt.gz
Wind_Speed
27 28 29 27 26 25 25 22 21 22 23 24 23 24 23 21 22 21 22 20 21 23 26 29 30 29 30 31 31 35 28 32 33
30 31 29 32 31 29 25 23 20 21 25 27 25 24 22 19 21 22 22 22 25 26 28 30 30 32 32 34 32 33 29 30 30
34 34 33 33 34 31 26 27 29 28 26 28 27 27 25 24 25 25 22 23 24 27 29 29 31 32 31 33 35 36 30 32 33
41 39 38 36 34 32 30 30 29 30 30 30 30 30 29 27 27 26 24 26 28 30 28 30 33 33 37 36 33 33 29 33 37
45 44 42 40 37 36 34 33 32 32 33 33 32 30 31 32 31 31 28 29 31 34 32 33 38 40 37 35 33 32 29 35 35
49 48 46 44 40 40 37 36 34 33 35 36 38 34 29 30 35 30 31 32 34 35 34 35 42 41 37 36 35 34 31 36 38
53 50 49 47 44 41 40 38 37 35 37 38 40 38 35 34 30 37 36 37 37 35 40 39 43 42 38 36 37 34 31 34 38
56 56 53 50 46 43 43 42 42 40 39 39 42 40 40 39 39 40 38 37 35 38 41 42 45 44 41 38 33 31 37 36 39
57 58 56 52 50 48 44 43 46 45 44 45 47 46 46 45 46 43 40 39 41 40 43 46 49 42 39 38 32 29 32 37 44
59 58 56 53 54 53 50 49 49 50 49 49 51 52 51 47 47 46 40 46 44 45 44 48 44 42 42 40 40 39 39 43 47
62 59 56 55 55 52 52 51 51 54 51 54 54 53 56 45 46 48 51 49 50 48 49 49 46 43 41 42 45 45 45 46 50
56 57 55 56 54 55 52 53 55 58 55 54 54 54 59 52 56 57 56 51 51 50 49 49 47 43 43 45 49 49 47 53 56
52 53 52 56 58 54 55 57 57 58 60 57 52 51 57 58 62 58 53 48 50 51 51 49 50 45 41 41 46 48 48 56 62
50 51 52 52 56 56 57 62 59 58 59 59 60 58 57 54 60 69 64 54 51 53 52 54 49 47 44 45 48 51 55 58 63
51 51 52 53 53 56 60 63 57 62 62 60 58 59 65 65 62 68 68 58 52 55 54 57 55 52 50 50 50 54 56 60 72
49 52 54 51 51 54 54 53 59 58 73 71 71 68 61 65 66 64 62 66 63 61 58 63 58 56 56 56 57 62 61 67 74
60 57 59 54 51 52 54 62 61 67 63 68 69 66 70 72 70 74 73 64 61 64 62 60 59 59 60 61 64 62 63 74 77
60 63 64 62 60 59 62 64 71 71 74 71 75 78 74 77 72 70 65 60 61 64 65 63 61 65 65 66 65 63 70 73 77
63 70 66 63 62 63 70 68 67 72 76 76 76 73 75 78 76 72 64 60 64 69 63 64 68 66 66 70 67 70 77 82 88
70 73 72 66 68 68 66 70 76 78 75 78 81 81 79 76 76 66 64 65 65 68 65 69 71 67 70 68 73 77 82 88 91

GFSFLT1_250_spd_117.txt.gz
Wind_Speed
29 29 28 29 26 25 25 24 26 23 21 22 21 23 24 23 21 20 21 20 20 20 22 25 26 26 29 31 32 32 34 31 30
33 32 30 30 28 27 29 28 28 25 24 24 24 26 26 26 25 25 25 22 18 22 23 27 27 28 31 34 35 37 34 32 29
40 37 35 34 32 29 29 32 29 28 28 31 32 31 29 29 29 29 27 25 22 24 26 29 30 29 34 38 35 33 33 32 27
42 41 39 38 36 34 31 31 30 30 29 31 31 32 32 31 30 31 29 28 30 28 31 31 32 34 36 41 39 34 34 34 26
50 47 45 43 41 38 35 35 35 34 33 31 32 33 34 32 32 26 32 33 30 30 32 31 32 37 38 41 38 35 36 34 29
58 53 50 48 45 42 39 37 38 37 36 35 32 35 36 36 33 33 28 29 32 32 33 31 35 39 41 41 38 33 33 25 27
61 58 54 51 48 46 43 40 39 38 38 38 37 36 38 37 37 36 36 35 37 35 34 35 39 39 40 43 38 33 32 24 31
62 60 56 55 51 48 45 44 42 42 40 41 42 40 40 42 43 42 41 37 37 38 36 41 40 43 41 39 37 39 33 31 36
63 63 61 57 54 51 50 48 46 45 45 43 43 45 43 44 46 47 45 38 41 38 36 42 46 47 42 42 38 38 36 37 41
65 64 63 60 57 54 51 50 50 49 50 49 48 49 49 50 49 45 48 48 44 46 47 42 45 48 43 44 41 36 41 39 44
61 65 64 58 58 59 53 51 49 50 49 48 48 50 51 50 49 46 47 51 50 50 49 42 44 43 44 46 42 41 40 38 41
60 61 64 61 59 60 56 55 51 51 51 52 51 52 52 51 53 52 46 50 54 55 51 50 47 42 46 49 50 42 39 40 43
62 63 63 56 56 56 55 53 50 51 53 51 53 54 55 56 55 54 55 55 56 57 55 54 51 48 47 55 52 47 44 44 47
66 62 63 55 52 52 52 50 52 54 57 53 53 57 59 59 58 58 55 55 61 65 60 58 50 52 57 55 55 51 45 49 49
55 68 68 59 51 50 49 50 54 54 54 54 56 60 64 60 64 62 65 66 67 68 59 59 58 59 58 54 56 54 51 53 52
55 62 58 55 56 55 54 56 57 54 50 51 57 58 57 66 65 68 66 66 69 65 63 63 57 56 53 53 53 54 53 55 56
53 60 61 58 60 56 51 50 52 53 51 57 63 64 69 68 73 73 67 70 70 67 70 65 64 60 58 55 58 56 58 61 61
72 73 74 65 64 57 51 56 56 58 56 59 66 63 71 74 73 71 74 71 68 63 64 67 64 63 58 56 56 57 61 65 64
74 72 67 65 61 62 59 52 63 64 67 70 70 69 74 77 71 72 70 71 68 70 67 63 60 53 53 59 59 61 68 64 61
78 71 64 64 63 62 62 59 68 69 69 68 71 71 75 73 75 76 78 75 67 62 62 59 54 54 60 63 57 60 63 65 65